GFSNGP_prec_precacc24_207.txt.gz
Total_Precipitation_Accumulation
0.19 0.14 0.12 0.13 0.13 0.21 0.44 0.61 0.77 0.58 0.51 0.47 0.43 0.42 0.45 0.47 0.50 0.46 0.34 0.37 0.35 0.32 0.28 0.21 0.15 0.10 0.07 0.12 0.29 0.47 0.51 0.44 0.44 0.43 0.43 0.45 0.49 0.47 0.43 0.34 0.26 0.24 0.26 0.27
0.20 0.08 0.12 0.18 0.10 0.08 0.10 0.13 0.22 0.18 0.16 0.14 0.26 0.28 0.27 0.24 0.34 0.58 0.44 0.23 0.17 0.25 0.43 0.32 0.14 0.10 0.11 0.13 0.21 0.32 0.58 0.82 0.85 0.83 0.64 0.56 0.49 0.41 0.40 0.40 0.38 0.37 0.37 0.33
0.30 0.10 0.21 0.36 0.08 0.02 0.02 0.02 0.06 0.16 0.09 0.09 0.13 0.08 0.04 0.05 0.08 0.09 0.09 0.07 0.04 0.03 0.06 0.07 0.05 0.05 0.08 0.13 0.15 0.20 0.27 0.37 0.58 0.85 0.82 0.69 0.69 0.56 0.45 0.39 0.37 0.31 0.26 0.25
0.26 0.21 0.39 0.10 0.02 0.02 0.04 0.05 0.06 0.07 0.06 0.19 0.15 0.08 0.04 0.02 0.02 0.00 0.00 0.00 0.00 0.00 0.00 0.01 0.03 0.03 0.03 0.04 0.05 0.06 0.12 0.21 0.29 0.31 0.37 0.39 0.42 0.48 0.47 0.39 0.42 0.37 0.33 0.28
0.31 0.21 0.12 0.02 0.00 0.01 0.02 0.02 0.01 0.02 0.08 0.08 0.03 0.04 0.02 0.04 0.03 0.01 0.01 0.01 0.00 0.01 0.02 0.03 0.08 0.06 0.01 0.00 0.01 0.02 0.03 0.06 0.08 0.10 0.13 0.17 0.24 0.32 0.42 0.54 0.54 0.48 0.39 0.34
0.59 0.41 0.16 0.05 0.03 0.00 0.03 0.05 0.01 0.01 0.03 0.05 0.05 0.07 0.02 0.02 0.06 0.03 0.03 0.02 0.02 0.02 0.04 0.03 0.06 0.17 0.14 0.02 0.00 0.00 0.01 0.01 0.03 0.04 0.08 0.14 0.19 0.24 0.35 0.42 0.47 0.55 0.66 0.62
0.76 0.89 0.52 0.20 0.03 0.04 0.22 0.22 0.15 0.13 0.12 0.07 0.07 0.05 0.03 0.03 0.04 0.04 0.05 0.03 0.03 0.02 0.02 0.02 0.02 0.06 0.15 0.10 0.02 0.01 0.01 0.02 0.04 0.06 0.09 0.20 0.38 0.52 0.62 0.63 0.61 0.60 0.59 0.61
0.53 0.76 0.87 0.30 0.13 0.21 0.25 0.13 0.09 0.06 0.13 0.17 0.13 0.09 0.10 0.06 0.02 0.03 0.12 0.19 0.20 0.11 0.06 0.04 0.04 0.03 0.04 0.04 0.02 0.02 0.00 0.01 0.04 0.12 0.25 0.40 0.54 0.65 0.64 0.60 0.58 0.57 0.62 0.69
0.39 0.65 0.56 0.53 0.45 0.24 0.17 0.21 0.15 0.06 0.16 0.65 0.49 0.33 0.21 0.26 0.16 0.17 0.20 0.29 0.25 0.18 0.23 0.15 0.05 0.04 0.03 0.03 0.04 0.05 0.05 0.12 0.24 0.32 0.47 0.60 0.58 0.57 0.52 0.47 0.44 0.45 0.41 0.40
0.03 0.12 0.16 0.41 0.32 0.25 0.17 0.19 0.17 0.07 0.07 0.32 0.71 0.77 0.94 0.76 0.73 0.45 0.27 0.25 0.25 0.15 0.18 0.18 0.22 0.12 0.07 0.05 0.07 0.12 0.18 0.26 0.37 0.49 0.58 0.60 0.60 0.48 0.37 0.35 0.32 0.29 0.28 0.29
0.00 0.01 0.00 0.03 0.02 0.02 0.06 0.13 0.25 0.12 0.13 0.21 0.45 0.56 0.90 0.85 0.70 0.85 0.49 0.21 0.30 0.19 0.17 0.13 0.24 0.19 0.11 0.15 0.13 0.15 0.19 0.29 0.33 0.34 0.34 0.35 0.33 0.31 0.28 0.22 0.17 0.18 0.18 0.17
0.00 0.00 0.00 0.00 0.00 0.00 0.00 0.03 0.19 0.38 0.29 0.35 0.42 0.30 0.42 0.24 0.43 0.38 0.52 0.37 0.34 0.25 0.17 0.13 0.07 0.10 0.14 0.18 0.18 0.19 0.19 0.19 0.19 0.23 0.25 0.23 0.24 0.31 0.34 0.30 0.29 0.28 0.25 0.22
0.00 0.00 0.00 0.00 0.00 0.00 0.00 0.00 0.04 0.25 0.21 0.25 0.47 0.43 0.75 0.30 0.42 0.31 0.31 0.10 0.05 0.07 0.06 0.04 0.03 0.01 0.06 0.09 0.02 0.01 0.01 0.03 0.06 0.10 0.13 0.16 0.19 0.16 0.19 0.31 0.35 0.30 0.28 0.28
0.00 0.00 0.00 0.00 0.00 0.00 0.00 0.00 0.00 0.03 0.09 0.10 0.18 0.28 0.99 0.57 0.56 0.37 0.16 0.00 0.00 0.00 0.00 0.00 0.00 0.00 0.00 0.00 0.00 0.00 0.00 0.00 0.00 0.01 0.03 0.06 0.09 0.13 0.14 0.11 0.14 0.20 0.23 0.21
0.00 0.00 0.00 0.00 0.00 0.00 0.00 0.00 0.00 0.00 0.02 0.05 0.07 0.19 0.41 0.75 0.75 0.28 0.02 0.00 0.00 0.00 0.00 0.00 0.00 0.00 0.00 0.00 0.00 0.00 0.00 0.00 0.00 0.00 0.00 0.01 0.03 0.06 0.08 0.10 0.10 0.11 0.15 0.21
0.02 0.00 0.00 0.00 0.00 0.00 0.00 0.00 0.00 0.00 0.00 0.01 0.02 0.17 0.42 0.80 0.59 0.09 0.03 0.00 0.00 0.00 0.00 0.00 0.00 0.00 0.00 0.00 0.00 0.00 0.01 0.01 0.01 0.01 0.01 0.01 0.02 0.03 0.05 0.06 0.07 0.08 0.09 0.09
0.12 0.06 0.05 0.02 0.02 0.02 0.01 0.00 0.00 0.00 0.00 0.01 0.01 0.05 0.47 0.48 0.16 0.02 0.00 0.00 0.00 0.00 0.00 0.00 0.00 0.00 0.00 0.00 0.00 0.01 0.02 0.05 0.06 0.06 0.05 0.04 0.04 0.04 0.05 0.08 0.09 0.10 0.10 0.08
0.07 0.08 0.09 0.08 0.07 0.04 0.03 0.02 0.00 0.00 0.02 0.03 0.03 0.01 0.25 0.46 0.07 0.02 0.00 0.00 0.00 0.00 0.00 0.00 0.00 0.00 0.00 0.00 0.00 0.02 0.05 0.06 0.09 0.10 0.09 0.09 0.06 0.07 0.08 0.08 0.11 0.12 0.13 0.13
0.05 0.08 0.08 0.08 0.09 0.09 0.08 0.07 0.06 0.03 0.04 0.06 0.05 0.03 0.14 0.31 0.03 0.00 0.00 0.00 0.00 0.00 0.00 0.00 0.00 0.00 0.00 0.01 0.02 0.01 0.06 0.10 0.12 0.13 0.11 0.12 0.12 0.09 0.08 0.08 0.09 0.11 0.10 0.10
0.02 0.03 0.03 0.01 0.02 0.05 0.02 0.01 0.01 0.02 0.03 0.03 0.03 0.05 0.23 0.52 0.09 0.00 0.00 0.00 0.00 0.00 0.00 0.00 0.00 0.00 0.00 0.00 0.02 0.01 0.04 0.11 0.17 0.20 0.21 0.19 0.15 0.12 0.09 0.08 0.10 0.15 0.15 0.09
0.05 0.05 0.11 0.05 0.06 0.16 0.05 0.03 0.01 0.01 0.02 0.01 0.03 0.05 0.14 0.21 0.10 0.01 0.00 0.00 0.00 0.00 0.00 0.00 0.00 0.00 0.00 0.01 0.01 0.00 0.02 0.06 0.14 0.24 0.28 0.29 0.27 0.26 0.23 0.19 0.16 0.15 0.17 0.13
0.11 0.22 0.29 0.19 0.22 0.35 0.26 0.16 0.10 0.05 0.03 0.03 0.08 0.12 0.09 0.07 0.06 0.01 0.00 0.00 0.00 0.00 0.00 0.00 0.00 0.00 0.01 0.01 0.01 0.01 0.01 0.02 0.04 0.16 0.30 0.41 0.46 0.41 0.35 0.32 0.32 0.25 0.23 0.23
0.03 0.07 0.13 0.16 0.18 0.15 0.20 0.21 0.14 0.08 0.05 0.04 0.05 0.11 0.17 0.16 0.08 0.02 0.00 0.00 0.00 0.00 0.00 0.00 0.01 0.01 0.02 0.01 0.01 0.01 0.02 0.03 0.04 0.06 0.08 0.17 0.28 0.37 0.39 0.39 0.36 0.33 0.32 0.30
0.01 0.01 0.01 0.00 0.01 0.02 0.03 0.05 0.10 0.09 0.07 0.04 0.02 0.05 0.05 0.08 0.11 0.05 0.01 0.00 0.00 0.01 0.01 0.01 0.01 0.01 0.02 0.02 0.03 0.04 0.04 0.05 0.08 0.11 0.17 0.28 0.30 0.29 0.35 0.38 0.36 0.30 0.28 0.28
0.01 0.01 0.01 0.00 0.03 0.04 0.01 0.00 0.01 0.02 0.04 0.04 0.03 0.05 0.05 0.02 0.03 0.02 0.00 0.00 0.00 0.00 0.01 0.01 0.01 0.02 0.03 0.03 0.04 0.05 0.06 0.08 0.11 0.15 0.19 0.20 0.19 0.20 0.19 0.21 0.22 0.24 0.24 0.24
0.02 0.01 0.02 0.02 0.02 0.03 0.03 0.02 0.01 0.01 0.01 0.00 0.01 0.01 0.01 0.00 0.00 0.00 0.00 0.01 0.01 0.01 0.01 0.02 0.02 0.03 0.03 0.03 0.04 0.04 0.05 0.06 0.10 0.11 0.12 0.12 0.12 0.13 0.14 0.17 0.17 0.17 0.19 0.21
0.01 0.02 0.02 0.02 0.02 0.03 0.04 0.04 0.02 0.01 0.01 0.02 0.02 0.01 0.01 0.01 0.01 0.01 0.01 0.01 0.01 0.01 0.01 0.01 0.02 0.03 0.03 0.03 0.03 0.03 0.04 0.06 0.08 0.09 0.12 0.13 0.14 0.15 0.16 0.17 0.16 0.16 0.16 0.17

GFSNGP_prec_precacc24_210.txt.gz
Total_Precipitation_Accumulation
0.16 0.12 0.06 0.08 0.08 0.16 0.36 0.52 0.71 0.56 0.51 0.47 0.43 0.42 0.45 0.47 0.50 0.46 0.34 0.37 0.35 0.32 0.28 0.21 0.15 0.10 0.07 0.11 0.28 0.46 0.49 0.41 0.42 0.45 0.47 0.50 0.57 0.59 0.58 0.53 0.62 0.67 0.64 0.53
0.17 0.04 0.03 0.07 0.03 0.03 0.05 0.10 0.19 0.17 0.15 0.14 0.26 0.28 0.27 0.24 0.34 0.58 0.44 0.23 0.17 0.25 0.43 0.32 0.14 0.10 0.11 0.13 0.21 0.32 0.58 0.81 0.85 0.81 0.73 0.65 0.62 0.57 0.57 0.63 0.62 0.65 0.64 0.57
0.28 0.09 0.19 0.31 0.07 0.02 0.02 0.02 0.06 0.16 0.09 0.09 0.13 0.08 0.04 0.05 0.08 0.09 0.09 0.07 0.04 0.03 0.06 0.07 0.05 0.06 0.08 0.13 0.15 0.21 0.27 0.37 0.57 0.84 1.02 1.08 1.11 1.09 0.92 0.73 0.67 0.75 0.57 0.42
0.24 0.18 0.32 0.09 0.02 0.02 0.04 0.05 0.06 0.07 0.06 0.19 0.15 0.08 0.04 0.02 0.02 0.00 0.00 0.00 0.00 0.00 0.00 0.01 0.03 0.04 0.04 0.05 0.05 0.06 0.12 0.21 0.28 0.30 0.40 0.54 0.71 0.91 1.05 0.99 0.93 0.76 0.64 0.55
0.27 0.19 0.11 0.02 0.00 0.01 0.02 0.02 0.01 0.02 0.08 0.08 0.03 0.04 0.02 0.04 0.03 0.01 0.01 0.01 0.00 0.01 0.02 0.03 0.08 0.07 0.04 0.04 0.04 0.02 0.02 0.04 0.06 0.09 0.11 0.14 0.24 0.40 0.57 0.75 0.83 0.81 0.77 0.69
0.38 0.35 0.14 0.05 0.03 0.00 0.03 0.05 0.01 0.01 0.03 0.05 0.05 0.07 0.02 0.02 0.06 0.03 0.03 0.02 0.02 0.02 0.04 0.03 0.06 0.20 0.19 0.10 0.06 0.04 0.01 0.00 0.01 0.01 0.03 0.04 0.06 0.14 0.27 0.41 0.55 0.73 0.92 0.91
0.57 0.72 0.46 0.20 0.03 0.03 0.22 0.22 0.15 0.13 0.12 0.07 0.07 0.05 0.03 0.03 0.04 0.04 0.05 0.03 0.03 0.02 0.02 0.02 0.03 0.13 0.25 0.24 0.15 0.09 0.04 0.01 0.00 0.02 0.06 0.09 0.12 0.18 0.35 0.48 0.55 0.64 0.73 0.79
0.48 0.64 0.76 0.27 0.12 0.20 0.25 0.13 0.09 0.06 0.13 0.17 0.13 0.09 0.10 0.06 0.02 0.03 0.12 0.19 0.20 0.11 0.06 0.04 0.04 0.05 0.13 0.17 0.13 0.07 0.06 0.01 0.00 0.01 0.03 0.13 0.21 0.29 0.38 0.44 0.51 0.58 0.64 0.72
0.28 0.50 0.39 0.47 0.43 0.23 0.17 0.21 0.15 0.06 0.16 0.65 0.49 0.33 0.21 0.26 0.16 0.18 0.20 0.29 0.25 0.18 0.22 0.14 0.05 0.05 0.07 0.14 0.11 0.05 0.02 0.02 0.02 0.04 0.06 0.13 0.26 0.35 0.39 0.40 0.42 0.45 0.42 0.41
0.03 0.09 0.08 0.31 0.31 0.25 0.17 0.19 0.17 0.07 0.07 0.32 0.71 0.77 0.94 0.76 0.73 0.45 0.29 0.26 0.25 0.14 0.16 0.17 0.20 0.12 0.13 0.11 0.10 0.06 0.05 0.07 0.09 0.11 0.16 0.25 0.36 0.36 0.32 0.32 0.31 0.29 0.28 0.29
0.00 0.00 0.00 0.02 0.02 0.02 0.06 0.13 0.25 0.12 0.13 0.21 0.45 0.56 0.90 0.85 0.70 0.87 0.60 0.31 0.38 0.23 0.19 0.13 0.21 0.24 0.21 0.19 0.09 0.07 0.07 0.11 0.12 0.12 0.13 0.18 0.25 0.26 0.25 0.22 0.17 0.18 0.18 0.17
0.00 0.00 0.00 0.00 0.00 0.00 0.00 0.03 0.19 0.38 0.29 0.35 0.42 0.30 0.42 0.24 0.43 0.45 0.79 0.68 0.58 0.42 0.26 0.20 0.11 0.18 0.26 0.26 0.11 0.07 0.06 0.06 0.10 0.14 0.17 0.18 0.21 0.29 0.34 0.30 0.29 0.28 0.25 0.22
0.00 0.00 0.00 0.00 0.00 0.00 0.00 0.00 0.02 0.25 0.21 0.25 0.47 0.43 0.75 0.30 0.43 0.47 0.66 0.51 0.51 0.49 0.34 0.29 0.15 0.05 0.20 0.20 0.09 0.03 0.02 0.02 0.04 0.07 0.12 0.16 0.19 0.17 0.19 0.31 0.35 0.30 0.28 0.28
0.00 0.00 0.00 0.00 0.00 0.00 0.00 0.00 0.00 0.03 0.09 0.10 0.18 0.28 0.99 0.57 0.59 0.58 0.51 0.21 0.18 0.23 0.31 0.29 0.13 0.03 0.04 0.04 0.04 0.01 0.00 0.00 0.00 0.01 0.03 0.06 0.09 0.13 0.14 0.11 0.14 0.20 0.23 0.21
0.00 0.00 0.00 0.00 0.00 0.00 0.00 0.00 0.00 0.00 0.02 0.05 0.07 0.19 0.41 0.76 0.87 0.63 0.32 0.09 0.05 0.04 0.06 0.07 0.01 0.00 0.00 0.00 0.00 0.00 0.00 0.00 0.00 0.00 0.00 0.01 0.03 0.06 0.08 0.10 0.10 0.10 0.15 0.21
0.02 0.00 0.00 0.00 0.00 0.00 0.00 0.00 0.00 0.00 0.00 0.01 0.02 0.17 0.43 0.99 1.08 0.55 0.16 0.01 0.00 0.00 0.00 0.00 0.00 0.00 0.00 0.00 0.00 0.00 0.01 0.01 0.01 0.01 0.01 0.01 0.02 0.03 0.05 0.06 0.07 0.08 0.08 0.09
0.12 0.06 0.05 0.03 0.02 0.02 0.01 0.00 0.00 0.00 0.00 0.01 0.01 0.05 0.48 0.83 0.53 0.16 0.05 0.00 0.00 0.00 0.00 0.00 0.00 0.00 0.00 0.00 0.00 0.01 0.01 0.03 0.06 0.05 0.05 0.04 0.04 0.04 0.05 0.08 0.09 0.10 0.10 0.08
0.07 0.08 0.09 0.08 0.07 0.04 0.02 0.02 0.01 0.01 0.03 0.04 0.03 0.02 0.26 0.64 0.46 0.10 0.01 0.00 0.00 0.00 0.00 0.00 0.00 0.00 0.00 0.00 0.00 0.01 0.01 0.01 0.04 0.08 0.09 0.09 0.06 0.07 0.08 0.08 0.11 0.12 0.13 0.13
0.05 0.08 0.08 0.08 0.09 0.08 0.07 0.06 0.06 0.03 0.04 0.06 0.07 0.04 0.18 0.40 0.18 0.09 0.01 0.00 0.00 0.00 0.00 0.00 0.01 0.00 0.00 0.00 0.01 0.00 0.01 0.01 0.02 0.04 0.09 0.11 0.12 0.09 0.08 0.08 0.09 0.11 0.09 0.10
0.02 0.03 0.03 0.01 0.01 0.04 0.01 0.01 0.02 0.02 0.04 0.04 0.05 0.07 0.30 0.58 0.17 0.01 0.00 0.00 0.00 0.00 0.00 0.00 0.00 0.00 0.00 0.00 0.01 0.00 0.01 0.01 0.01 0.02 0.08 0.14 0.13 0.11 0.09 0.08 0.10 0.15 0.15 0.09
0.05 0.01 0.01 0.01 0.06 0.16 0.06 0.03 0.02 0.02 0.02 0.03 0.07 0.08 0.16 0.25 0.16 0.02 0.00 0.00 0.00 0.00 0.00 0.00 0.00 0.00 0.00 0.00 0.00 0.00 0.01 0.01 0.01 0.01 0.03 0.09 0.16 0.19 0.18 0.16 0.14 0.15 0.16 0.13
0.08 0.11 0.13 0.10 0.20 0.35 0.26 0.16 0.10 0.06 0.04 0.03 0.09 0.14 0.10 0.10 0.15 0.04 0.00 0.00 0.00 0.00 0.00 0.00 0.00 0.00 0.00 0.01 0.00 0.00 0.00 0.01 0.01 0.02 0.04 0.09 0.19 0.27 0.27 0.25 0.23 0.18 0.18 0.18
0.03 0.07 0.13 0.15 0.18 0.15 0.21 0.22 0.14 0.08 0.06 0.04 0.06 0.13 0.19 0.19 0.16 0.08 0.01 0.00 0.00 0.00 0.00 0.00 0.01 0.01 0.01 0.01 0.00 0.01 0.01 0.02 0.02 0.03 0.04 0.11 0.17 0.24 0.30 0.31 0.28 0.27 0.26 0.24
0.01 0.01 0.01 0.00 0.01 0.02 0.03 0.06 0.10 0.09 0.07 0.05 0.03 0.06 0.09 0.14 0.19 0.16 0.05 0.01 0.00 0.00 0.00 0.01 0.01 0.01 0.02 0.01 0.02 0.02 0.03 0.03 0.04 0.06 0.12 0.21 0.24 0.22 0.27 0.28 0.27 0.25 0.24 0.24
0.01 0.01 0.01 0.00 0.03 0.04 0.02 0.01 0.01 0.02 0.04 0.04 0.03 0.05 0.08 0.08 0.09 0.09 0.07 0.04 0.01 0.00 0.01 0.01 0.01 0.02 0.02 0.02 0.03 0.03 0.03 0.05 0.06 0.07 0.10 0.12 0.13 0.14 0.15 0.19 0.20 0.20 0.20 0.19
0.02 0.01 0.02 0.02 0.02 0.03 0.03 0.02 0.01 0.01 0.01 0.01 0.01 0.01 0.01 0.02 0.02 0.02 0.01 0.01 0.01 0.01 0.01 0.02 0.02 0.03 0.03 0.03 0.03 0.02 0.03 0.04 0.06 0.07 0.08 0.08 0.10 0.11 0.13 0.13 0.13 0.13 0.14 0.17
0.01 0.02 0.02 0.02 0.02 0.03 0.04 0.04 0.02 0.01 0.01 0.02 0.03 0.02 0.01 0.01 0.01 0.01 0.00 0.01 0.01 0.01 0.01 0.02 0.02 0.03 0.02 0.02 0.02 0.02 0.03 0.04 0.05 0.06 0.08 0.09 0.11 0.11 0.12 0.12 0.11 0.12 0.12 0.12

GFSNGP_prec_precacc24_216.txt.gz
Total_Precipitation_Accumulation
0.04 0.03 0.02 0.01 0.01 0.07 0.15 0.15 0.23 0.09 0.06 0.17 0.26 0.35 0.44 0.46 0.50 0.46 0.35 0.38 0.35 0.32 0.28 0.21 0.15 0.10 0.07 0.11 0.28 0.45 0.47 0.36 0.31 0.23 0.18 0.16 0.23 0.35 0.49 0.64 0.77 0.80 0.80 0.74
0.07 0.01 0.01 0.02 0.01 0.00 0.01 0.03 0.09 0.09 0.05 0.01 0.08 0.18 0.25 0.23 0.34 0.58 0.44 0.23 0.17 0.25 0.43 0.32 0.14 0.10 0.11 0.14 0.21 0.32 0.58 0.80 0.83 0.79 0.63 0.45 0.36 0.37 0.50 0.64 0.70 0.80 0.87 0.86
0.10 0.01 0.04 0.06 0.00 0.00 0.00 0.00 0.03 0.07 0.05 0.04 0.07 0.07 0.04 0.05 0.08 0.09 0.09 0.07 0.04 0.03 0.06 0.07 0.05 0.06 0.08 0.13 0.15 0.21 0.28 0.37 0.57 0.83 0.98 0.97 0.94 0.87 0.71 0.61 0.67 0.86 0.89 0.80
0.10 0.06 0.09 0.01 0.00 0.00 0.00 0.00 0.00 0.02 0.04 0.14 0.13 0.08 0.04 0.02 0.02 0.00 0.00 0.00 0.00 0.00 0.00 0.01 0.03 0.04 0.04 0.05 0.05 0.06 0.12 0.22 0.28 0.30 0.39 0.52 0.65 0.81 0.94 0.91 0.92 0.94 0.90 0.94
0.15 0.07 0.02 0.00 0.00 0.01 0.01 0.01 0.00 0.00 0.05 0.08 0.03 0.04 0.02 0.04 0.03 0.01 0.01 0.01 0.00 0.01 0.02 0.03 0.08 0.07 0.04 0.05 0.04 0.04 0.03 0.05 0.07 0.09 0.11 0.14 0.23 0.37 0.49 0.64 0.76 0.91 0.94 0.90
0.17 0.18 0.06 0.04 0.03 0.00 0.03 0.05 0.01 0.01 0.03 0.05 0.05 0.07 0.02 0.02 0.06 0.03 0.03 0.02 0.02 0.02 0.04 0.03 0.06 0.20 0.20 0.11 0.07 0.05 0.02 0.01 0.01 0.01 0.02 0.03 0.05 0.09 0.18 0.28 0.41 0.60 0.89 1.02
0.44 0.53 0.33 0.18 0.03 0.03 0.19 0.21 0.15 0.13 0.12 0.07 0.07 0.05 0.03 0.03 0.04 0.04 0.05 0.03 0.03 0.02 0.02 0.02 0.03 0.13 0.26 0.25 0.16 0.10 0.07 0.04 0.02 0.02 0.05 0.05 0.03 0.03 0.06 0.11 0.18 0.28 0.42 0.67
0.22 0.40 0.50 0.11 0.05 0.16 0.21 0.13 0.09 0.06 0.13 0.17 0.13 0.09 0.10 0.06 0.02 0.03 0.12 0.19 0.20 0.11 0.06 0.04 0.04 0.05 0.13 0.20 0.16 0.11 0.08 0.05 0.03 0.02 0.02 0.04 0.05 0.03 0.03 0.04 0.09 0.16 0.29 0.48
0.03 0.06 0.02 0.04 0.11 0.11 0.12 0.19 0.14 0.06 0.16 0.65 0.49 0.33 0.21 0.26 0.16 0.18 0.20 0.29 0.25 0.18 0.22 0.14 0.05 0.05 0.07 0.15 0.14 0.17 0.16 0.08 0.05 0.07 0.05 0.02 0.02 0.02 0.01 0.02 0.03 0.07 0.12 0.19
0.00 0.01 0.00 0.01 0.03 0.08 0.09 0.16 0.15 0.07 0.07 0.32 0.71 0.77 0.94 0.76 0.73 0.45 0.29 0.26 0.24 0.14 0.16 0.17 0.20 0.12 0.14 0.13 0.13 0.12 0.14 0.17 0.20 0.12 0.17 0.17 0.10 0.09 0.08 0.06 0.07 0.09 0.11 0.14
0.00 0.00 0.00 0.00 0.00 0.00 0.03 0.09 0.22 0.10 0.13 0.21 0.45 0.56 0.90 0.85 0.70 0.87 0.60 0.31 0.39 0.24 0.21 0.16 0.23 0.25 0.21 0.18 0.14 0.16 0.11 0.19 0.21 0.23 0.22 0.20 0.22 0.21 0.14 0.11 0.10 0.09 0.10 0.10
0.01 0.00 0.00 0.00 0.00 0.00 0.00 0.02 0.17 0.34 0.28 0.35 0.42 0.30 0.42 0.24 0.43 0.45 0.79 0.69 0.61 0.49 0.40 0.32 0.22 0.27 0.29 0.30 0.19 0.26 0.16 0.10 0.19 0.14 0.14 0.14 0.17 0.16 0.17 0.11 0.10 0.11 0.10 0.11
0.00 0.00 0.00 0.00 0.00 0.00 0.00 0.00 0.01 0.21 0.20 0.25 0.47 0.43 0.75 0.30 0.43 0.47 0.67 0.58 0.66 0.71 0.65 0.51 0.29 0.26 0.38 0.35 0.34 0.37 0.29 0.14 0.15 0.13 0.06 0.03 0.06 0.06 0.09 0.14 0.14 0.13 0.13 0.15
0.00 0.00 0.00 0.00 0.00 0.00 0.00 0.00 0.00 0.02 0.09 0.10 0.18 0.28 0.99 0.58 0.59 0.58 0.54 0.37 0.54 0.67 0.81 0.83 0.43 0.28 0.32 0.40 0.40 0.47 0.46 0.27 0.11 0.03 0.00 0.00 0.00 0.02 0.04 0.06 0.08 0.12 0.16 0.17
0.00 0.00 0.00 0.00 0.00 0.00 0.00 0.00 0.00 0.00 0.02 0.05 0.07 0.19 0.41 0.77 0.91 0.73 0.56 0.45 0.50 0.54 0.72 0.79 0.53 0.41 0.42 0.44 0.47 0.48 0.42 0.26 0.07 0.00 0.00 0.00 0.00 0.01 0.02 0.04 0.06 0.08 0.12 0.20
0.02 0.00 0.00 0.00 0.00 0.00 0.00 0.00 0.00 0.00 0.00 0.01 0.02 0.17 0.43 1.06 1.38 0.98 0.56 0.34 0.31 0.40 0.44 0.40 0.43 0.41 0.46 0.40 0.36 0.42 0.25 0.11 0.02 0.00 0.00 0.00 0.00 0.01 0.02 0.03 0.04 0.06 0.07 0.09
0.09 0.06 0.06 0.03 0.02 0.02 0.01 0.00 0.00 0.00 0.01 0.01 0.02 0.06 0.51 0.99 0.83 0.49 0.36 0.19 0.20 0.21 0.24 0.26 0.25 0.27 0.32 0.29 0.20 0.17 0.05 0.01 0.01 0.00 0.00 0.00 0.00 0.01 0.03 0.06 0.07 0.08 0.10 0.08
0.06 0.08 0.09 0.08 0.07 0.04 0.02 0.02 0.01 0.01 0.04 0.05 0.05 0.04 0.42 0.81 0.76 0.37 0.16 0.05 0.02 0.05 0.06 0.10 0.08 0.04 0.04 0.05 0.03 0.02 0.01 0.00 0.00 0.00 0.00 0.00 0.00 0.00 0.02 0.04 0.08 0.10 0.13 0.13
0.05 0.08 0.08 0.08 0.09 0.08 0.08 0.07 0.07 0.04 0.05 0.08 0.08 0.12 0.36 0.58 0.51 0.26 0.10 0.01 0.01 0.00 0.03 0.02 0.02 0.00 0.00 0.00 0.00 0.00 0.01 0.01 0.01 0.01 0.01 0.01 0.01 0.01 0.01 0.03 0.05 0.08 0.08 0.10
0.02 0.03 0.03 0.02 0.00 0.01 0.01 0.01 0.03 0.03 0.04 0.05 0.08 0.17 0.39 0.66 0.36 0.10 0.03 0.01 0.00 0.01 0.01 0.01 0.00 0.00 0.00 0.00 0.01 0.00 0.01 0.01 0.01 0.00 0.02 0.02 0.01 0.02 0.02 0.03 0.04 0.07 0.09 0.06
0.05 0.01 0.01 0.01 0.02 0.06 0.03 0.03 0.02 0.02 0.03 0.03 0.07 0.09 0.17 0.28 0.26 0.06 0.00 0.00 0.00 0.00 0.00 0.00 0.00 0.00 0.00 0.00 0.00 0.00 0.01 0.01 0.01 0.01 0.01 0.01 0.01 0.02 0.03 0.04 0.05 0.06 0.09 0.08
0.04 0.04 0.04 0.04 0.14 0.26 0.14 0.11 0.09 0.06 0.04 0.04 0.09 0.14 0.11 0.11 0.18 0.10 0.01 0.00 0.00 0.00 0.00 0.00 0.00 0.00 0.00 0.00 0.00 0.00 0.00 0.00 0.00 0.01 0.01 0.02 0.03 0.03 0.03 0.04 0.05 0.05 0.07 0.09
0.00 0.01 0.03 0.06 0.10 0.11 0.19 0.19 0.12 0.08 0.06 0.05 0.06 0.13 0.20 0.20 0.17 0.13 0.03 0.00 0.00 0.00 0.00 0.00 0.01 0.01 0.01 0.00 0.00 0.00 0.01 0.01 0.01 0.01 0.01 0.03 0.04 0.05 0.05 0.05 0.06 0.07 0.08 0.09
0.01 0.01 0.00 0.00 0.01 0.02 0.02 0.05 0.10 0.09 0.08 0.05 0.04 0.06 0.10 0.15 0.21 0.18 0.08 0.03 0.00 0.00 0.00 0.00 0.01 0.01 0.02 0.01 0.01 0.01 0.01 0.01 0.02 0.03 0.03 0.06 0.05 0.07 0.08 0.09 0.10 0.09 0.10 0.11
0.01 0.01 0.01 0.00 0.03 0.04 0.02 0.01 0.01 0.03 0.04 0.05 0.04 0.06 0.08 0.10 0.11 0.11 0.09 0.10 0.06 0.02 0.01 0.01 0.01 0.02 0.02 0.02 0.02 0.02 0.01 0.02 0.03 0.03 0.05 0.06 0.06 0.07 0.09 0.12 0.13 0.14 0.14 0.14
0.02 0.02 0.02 0.02 0.02 0.03 0.03 0.02 0.01 0.01 0.02 0.01 0.01 0.02 0.02 0.03 0.04 0.04 0.03 0.04 0.06 0.06 0.04 0.02 0.02 0.03 0.02 0.02 0.02 0.01 0.02 0.02 0.03 0.03 0.04 0.04 0.05 0.06 0.07 0.08 0.08 0.08 0.10 0.12
0.03 0.03 0.03 0.03 0.02 0.04 0.04 0.04 0.02 0.02 0.02 0.03 0.03 0.02 0.02 0.02 0.02 0.02 0.01 0.02 0.02 0.05 0.06 0.05 0.04 0.03 0.02 0.02 0.02 0.01 0.02 0.02 0.02 0.03 0.04 0.04 0.05 0.05 0.06 0.05 0.05 0.05 0.05 0.05

GFSNGP_prec_precacc24_219.txt.gz
Total_Precipitation_Accumulation
0.05 0.03 0.02 0.01 0.02 0.07 0.14 0.10 0.13 0.08 0.04 0.03 0.01 0.02 0.10 0.30 0.43 0.45 0.35 0.38 0.35 0.32 0.28 0.21 0.15 0.10 0.07 0.11 0.28 0.45 0.47 0.36 0.31 0.23 0.18 0.16 0.19 0.25 0.32 0.47 0.65 0.73 0.67 0.60
0.07 0.01 0.01 0.02 0.01 0.00 0.01 0.02 0.03 0.02 0.01 0.00 0.00 0.00 0.01 0.07 0.26 0.51 0.44 0.23 0.17 0.25 0.43 0.32 0.14 0.10 0.11 0.14 0.21 0.32 0.58 0.80 0.83 0.79 0.63 0.45 0.34 0.28 0.32 0.41 0.49 0.67 0.86 0.88
0.10 0.01 0.04 0.06 0.00 0.00 0.00 0.00 0.00 0.01 0.00 0.00 0.00 0.00 0.00 0.00 0.01 0.05 0.09 0.07 0.04 0.03 0.06 0.07 0.05 0.06 0.08 0.13 0.15 0.21 0.28 0.37 0.57 0.83 0.98 0.97 0.93 0.84 0.62 0.50 0.55 0.73 0.80 0.77
0.11 0.07 0.09 0.01 0.00 0.00 0.00 0.00 0.00 0.00 0.00 0.00 0.00 0.00 0.00 0.00 0.00 0.00 0.00 0.00 0.00 0.00 0.00 0.01 0.03 0.04 0.04 0.05 0.05 0.06 0.12 0.22 0.28 0.30 0.39 0.52 0.64 0.78 0.88 0.81 0.82 0.82 0.75 0.78
0.16 0.08 0.03 0.00 0.00 0.00 0.01 0.00 0.00 0.00 0.00 0.01 0.01 0.03 0.01 0.03 0.03 0.01 0.01 0.01 0.00 0.01 0.02 0.03 0.08 0.07 0.04 0.05 0.04 0.04 0.03 0.05 0.07 0.09 0.11 0.14 0.23 0.35 0.41 0.48 0.57 0.74 0.81 0.76
0.17 0.19 0.06 0.03 0.00 0.00 0.02 0.02 0.00 0.01 0.01 0.04 0.04 0.05 0.01 0.02 0.06 0.03 0.03 0.02 0.02 0.02 0.04 0.03 0.06 0.20 0.20 0.11 0.07 0.05 0.02 0.01 0.01 0.01 0.02 0.03 0.05 0.09 0.18 0.26 0.33 0.46 0.66 0.79
0.35 0.44 0.27 0.12 0.01 0.00 0.09 0.08 0.07 0.13 0.11 0.07 0.06 0.04 0.03 0.03 0.04 0.04 0.05 0.03 0.03 0.02 0.02 0.02 0.03 0.13 0.26 0.25 0.16 0.10 0.07 0.04 0.02 0.02 0.05 0.05 0.03 0.03 0.06 0.11 0.17 0.24 0.32 0.48
0.21 0.33 0.36 0.05 0.01 0.04 0.07 0.01 0.04 0.04 0.11 0.16 0.09 0.08 0.10 0.06 0.02 0.03 0.12 0.19 0.20 0.11 0.06 0.04 0.04 0.05 0.13 0.20 0.16 0.11 0.08 0.05 0.03 0.02 0.02 0.05 0.05 0.03 0.03 0.04 0.08 0.13 0.22 0.32
0.09 0.13 0.02 0.00 0.00 0.00 0.01 0.01 0.03 0.04 0.13 0.62 0.47 0.33 0.21 0.26 0.16 0.18 0.20 0.29 0.25 0.18 0.22 0.14 0.05 0.05 0.07 0.15 0.14 0.17 0.16 0.08 0.05 0.07 0.06 0.02 0.02 0.02 0.00 0.01 0.02 0.04 0.08 0.12
0.01 0.01 0.00 0.00 0.00 0.00 0.00 0.01 0.02 0.05 0.06 0.31 0.70 0.76 0.94 0.76 0.73 0.45 0.29 0.26 0.24 0.14 0.16 0.17 0.20 0.12 0.14 0.13 0.13 0.12 0.14 0.17 0.20 0.13 0.16 0.17 0.10 0.07 0.05 0.03 0.03 0.04 0.06 0.07
0.03 0.01 0.00 0.01 0.00 0.00 0.00 0.01 0.03 0.06 0.09 0.16 0.45 0.56 0.90 0.85 0.70 0.87 0.60 0.31 0.39 0.24 0.21 0.16 0.23 0.25 0.21 0.18 0.14 0.16 0.11 0.19 0.21 0.24 0.26 0.21 0.27 0.26 0.16 0.11 0.11 0.07 0.07 0.06
0.03 0.01 0.00 0.00 0.01 0.00 0.00 0.00 0.02 0.08 0.17 0.30 0.41 0.30 0.42 0.24 0.43 0.46 0.80 0.70 0.62 0.49 0.41 0.32 0.22 0.27 0.29 0.30 0.19 0.26 0.16 0.10 0.22 0.18 0.19 0.24 0.23 0.36 0.42 0.31 0.25 0.19 0.14 0.10
0.00 0.00 0.00 0.00 0.00 0.00 0.00 0.00 0.00 0.05 0.17 0.23 0.47 0.43 0.75 0.30 0.43 0.47 0.67 0.58 0.66 0.71 0.66 0.52 0.29 0.27 0.42 0.38 0.35 0.37 0.30 0.15 0.18 0.21 0.14 0.15 0.24 0.22 0.21 0.28 0.26 0.25 0.23 0.20
0.00 0.00 0.00 0.00 0.00 0.00 0.00 0.00 0.00 0.00 0.03 0.10 0.18 0.28 0.99 0.58 0.59 0.58 0.55 0.38 0.56 0.70 0.84 0.89 0.48 0.32 0.40 0.55 0.46 0.48 0.47 0.34 0.20 0.18 0.18 0.12 0.15 0.20 0.14 0.14 0.19 0.18 0.17 0.15
0.00 0.00 0.00 0.00 0.00 0.00 0.00 0.00 0.00 0.00 0.01 0.05 0.07 0.19 0.41 0.77 0.91 0.75 0.60 0.51 0.58 0.63 0.82 0.87 0.59 0.47 0.50 0.57 0.56 0.52 0.49 0.40 0.31 0.23 0.18 0.14 0.11 0.11 0.08 0.05 0.05 0.05 0.07 0.11
0.02 0.00 0.00 0.00 0.00 0.00 0.00 0.00 0.00 0.00 0.00 0.00 0.02 0.16 0.41 1.06 1.41 1.04 0.62 0.43 0.43 0.52 0.56 0.48 0.48 0.53 0.58 0.57 0.58 0.65 0.52 0.41 0.32 0.21 0.12 0.05 0.03 0.02 0.01 0.01 0.01 0.02 0.03 0.04
0.06 0.05 0.04 0.02 0.02 0.02 0.01 0.00 0.00 0.01 0.01 0.01 0.02 0.06 0.53 1.01 0.89 0.53 0.42 0.28 0.32 0.35 0.38 0.37 0.39 0.42 0.50 0.55 0.60 0.60 0.44 0.36 0.19 0.08 0.02 0.00 0.00 0.00 0.00 0.01 0.02 0.03 0.04 0.04
0.04 0.05 0.05 0.06 0.07 0.03 0.01 0.02 0.01 0.01 0.04 0.05 0.05 0.06 0.45 0.86 0.81 0.41 0.22 0.11 0.09 0.12 0.17 0.27 0.20 0.22 0.34 0.45 0.31 0.18 0.12 0.06 0.04 0.01 0.00 0.00 0.00 0.00 0.01 0.02 0.02 0.03 0.05 0.08
0.03 0.05 0.06 0.07 0.06 0.06 0.07 0.06 0.06 0.04 0.05 0.08 0.08 0.12 0.37 0.61 0.56 0.31 0.14 0.03 0.02 0.02 0.07 0.07 0.06 0.04 0.06 0.07 0.04 0.02 0.01 0.01 0.01 0.01 0.01 0.01 0.01 0.00 0.01 0.01 0.02 0.03 0.02 0.05
0.01 0.01 0.02 0.01 0.00 0.00 0.01 0.01 0.03 0.03 0.04 0.04 0.08 0.17 0.39 0.66 0.39 0.14 0.04 0.01 0.01 0.03 0.03 0.02 0.01 0.01 0.01 0.01 0.01 0.00 0.01 0.01 0.01 0.01 0.02 0.02 0.01 0.02 0.02 0.02 0.02 0.03 0.03 0.02
0.03 0.01 0.01 0.01 0.01 0.02 0.02 0.02 0.02 0.01 0.02 0.03 0.07 0.09 0.18 0.28 0.27 0.08 0.01 0.00 0.01 0.01 0.00 0.00 0.00 0.00 0.00 0.01 0.01 0.00 0.00 0.01 0.01 0.01 0.01 0.01 0.01 0.01 0.02 0.02 0.02 0.03 0.04 0.03
0.01 0.01 0.02 0.02 0.10 0.13 0.08 0.09 0.08 0.05 0.03 0.03 0.09 0.14 0.11 0.11 0.18 0.11 0.02 0.00 0.01 0.00 0.00 0.00 0.00 0.00 0.00 0.00 0.00 0.00 0.00 0.01 0.01 0.01 0.01 0.01 0.02 0.02 0.02 0.02 0.02 0.03 0.04 0.05
0.00 0.00 0.01 0.02 0.04 0.08 0.12 0.10 0.09 0.07 0.06 0.05 0.06 0.13 0.20 0.20 0.17 0.13 0.05 0.00 0.00 0.00 0.00 0.00 0.01 0.01 0.01 0.00 0.00 0.00 0.01 0.01 0.01 0.01 0.01 0.02 0.03 0.04 0.04 0.04 0.04 0.04 0.06 0.06
0.01 0.01 0.00 0.00 0.01 0.01 0.02 0.05 0.09 0.08 0.07 0.05 0.03 0.06 0.10 0.16 0.21 0.18 0.09 0.03 0.00 0.00 0.00 0.00 0.01 0.01 0.01 0.00 0.01 0.00 0.01 0.01 0.01 0.02 0.02 0.05 0.03 0.04 0.06 0.06 0.07 0.07 0.08 0.09
0.00 0.01 0.00 0.00 0.03 0.04 0.02 0.01 0.02 0.03 0.04 0.05 0.04 0.06 0.09 0.10 0.12 0.11 0.09 0.10 0.06 0.02 0.01 0.00 0.01 0.02 0.02 0.01 0.01 0.02 0.01 0.02 0.02 0.02 0.04 0.05 0.05 0.06 0.06 0.06 0.07 0.09 0.10 0.10
0.02 0.01 0.02 0.02 0.02 0.03 0.03 0.02 0.01 0.01 0.02 0.01 0.01 0.03 0.03 0.03 0.04 0.04 0.03 0.04 0.06 0.07 0.05 0.02 0.02 0.03 0.02 0.02 0.02 0.02 0.02 0.02 0.03 0.03 0.03 0.04 0.04 0.04 0.05 0.05 0.05 0.05 0.06 0.08
0.03 0.03 0.03 0.03 0.03 0.04 0.06 0.05 0.03 0.02 0.02 0.03 0.03 0.02 0.03 0.03 0.02 0.02 0.01 0.01 0.03 0.06 0.06 0.06 0.05 0.03 0.03 0.02 0.02 0.02 0.02 0.02 0.02 0.02 0.03 0.03 0.03 0.03 0.04 0.03 0.03 0.03 0.03 0.02

GFSNGP_prec_precacc24_222.txt.gz
Total_Precipitation_Accumulation
0.08 0.04 0.02 0.01 0.02 0.07 0.14 0.10 0.12 0.15 0.09 0.08 0.04 0.02 0.02 0.00 0.01 0.04 0.13 0.29 0.34 0.32 0.28 0.21 0.15 0.10 0.07 0.11 0.28 0.45 0.47 0.36 0.31 0.23 0.18 0.16 0.19 0.25 0.32 0.47 0.65 0.73 0.70 0.64
0.06 0.01 0.01 0.03 0.01 0.00 0.01 0.02 0.03 0.02 0.01 0.00 0.01 0.00 0.01 0.00 0.00 0.01 0.05 0.15 0.14 0.23 0.42 0.32 0.14 0.10 0.11 0.14 0.21 0.32 0.58 0.80 0.83 0.79 0.63 0.45 0.34 0.28 0.32 0.41 0.46 0.58 0.72 0.78
0.10 0.02 0.04 0.06 0.00 0.00 0.00 0.00 0.00 0.01 0.00 0.00 0.00 0.00 0.00 0.00 0.00 0.00 0.00 0.02 0.03 0.03 0.05 0.07 0.05 0.06 0.08 0.13 0.15 0.21 0.28 0.37 0.57 0.83 0.98 0.97 0.93 0.84 0.62 0.50 0.54 0.70 0.73 0.66
0.11 0.07 0.09 0.01 0.00 0.00 0.00 0.00 0.00 0.00 0.00 0.00 0.00 0.00 0.00 0.00 0.00 0.00 0.00 0.00 0.00 0.00 0.00 0.01 0.03 0.04 0.04 0.05 0.05 0.06 0.12 0.22 0.28 0.30 0.39 0.52 0.64 0.78 0.88 0.81 0.81 0.80 0.71 0.74
0.15 0.08 0.02 0.00 0.00 0.00 0.00 0.00 0.00 0.00 0.00 0.00 0.00 0.00 0.01 0.03 0.02 0.01 0.01 0.01 0.00 0.01 0.02 0.03 0.08 0.07 0.04 0.05 0.04 0.04 0.03 0.05 0.07 0.09 0.11 0.14 0.23 0.35 0.41 0.48 0.56 0.71 0.76 0.69
0.14 0.18 0.06 0.05 0.00 0.00 0.00 0.02 0.00 0.00 0.00 0.00 0.00 0.01 0.00 0.02 0.06 0.03 0.03 0.02 0.02 0.02 0.04 0.03 0.06 0.20 0.20 0.11 0.07 0.05 0.02 0.01 0.01 0.01 0.02 0.03 0.05 0.09 0.18 0.26 0.33 0.43 0.57 0.64
0.19 0.32 0.23 0.11 0.01 0.00 0.06 0.06 0.00 0.00 0.00 0.01 0.02 0.02 0.02 0.03 0.04 0.04 0.05 0.03 0.03 0.02 0.02 0.02 0.03 0.13 0.26 0.25 0.16 0.10 0.07 0.04 0.02 0.02 0.05 0.05 0.03 0.03 0.06 0.11 0.17 0.23 0.29 0.43
0.24 0.23 0.23 0.04 0.02 0.03 0.05 0.01 0.00 0.00 0.00 0.03 0.04 0.03 0.02 0.02 0.02 0.03 0.12 0.19 0.20 0.11 0.06 0.04 0.04 0.05 0.13 0.20 0.16 0.11 0.08 0.05 0.03 0.02 0.02 0.05 0.05 0.03 0.03 0.04 0.08 0.12 0.15 0.21
0.23 0.27 0.05 0.01 0.01 0.00 0.00 0.00 0.00 0.00 0.01 0.05 0.20 0.26 0.18 0.17 0.13 0.18 0.20 0.29 0.25 0.18 0.22 0.14 0.05 0.05 0.07 0.15 0.14 0.17 0.16 0.08 0.05 0.07 0.06 0.03 0.02 0.02 0.01 0.00 0.01 0.02 0.03 0.07
0.04 0.04 0.03 0.00 0.00 0.00 0.00 0.00 0.00 0.00 0.03 0.09 0.19 0.53 0.82 0.73 0.72 0.45 0.29 0.26 0.24 0.14 0.16 0.17 0.20 0.12 0.14 0.13 0.13 0.12 0.14 0.17 0.20 0.13 0.17 0.17 0.10 0.07 0.03 0.01 0.00 0.01 0.02 0.03
0.06 0.04 0.05 0.01 0.01 0.00 0.00 0.00 0.00 0.00 0.02 0.08 0.18 0.46 0.88 0.85 0.70 0.87 0.60 0.31 0.39 0.24 0.21 0.16 0.23 0.25 0.21 0.18 0.14 0.16 0.11 0.19 0.21 0.24 0.26 0.21 0.27 0.26 0.14 0.08 0.09 0.03 0.02 0.04
0.06 0.03 0.01 0.01 0.01 0.00 0.00 0.00 0.00 0.00 0.02 0.09 0.22 0.29 0.41 0.23 0.41 0.45 0.80 0.70 0.62 0.49 0.41 0.33 0.22 0.27 0.29 0.30 0.19 0.26 0.16 0.11 0.22 0.18 0.19 0.24 0.23 0.36 0.44 0.34 0.28 0.23 0.19 0.15
0.00 0.00 0.00 0.00 0.00 0.00 0.00 0.00 0.00 0.00 0.02 0.09 0.28 0.41 0.73 0.25 0.42 0.46 0.66 0.59 0.66 0.71 0.66 0.52 0.29 0.28 0.42 0.38 0.35 0.37 0.30 0.15 0.18 0.21 0.14 0.15 0.24 0.22 0.23 0.32 0.32 0.33 0.33 0.29
0.00 0.00 0.00 0.00 0.00 0.00 0.00 0.00 0.00 0.00 0.01 0.06 0.14 0.27 0.99 0.57 0.58 0.59 0.55 0.39 0.56 0.70 0.85 0.90 0.50 0.35 0.41 0.59 0.52 0.51 0.48 0.34 0.21 0.18 0.18 0.13 0.17 0.28 0.21 0.19 0.26 0.30 0.31 0.28
0.00 0.00 0.00 0.00 0.00 0.00 0.00 0.00 0.00 0.00 0.00 0.01 0.07 0.18 0.40 0.76 0.91 0.76 0.61 0.52 0.59 0.65 0.86 0.91 0.62 0.53 0.52 0.64 0.68 0.63 0.60 0.46 0.34 0.24 0.21 0.23 0.22 0.26 0.32 0.25 0.17 0.15 0.19 0.21
0.01 0.00 0.00 0.00 0.00 0.00 0.00 0.00 0.00 0.00 0.00 0.00 0.02 0.12 0.34 1.02 1.43 1.09 0.66 0.45 0.47 0.59 0.64 0.54 0.54 0.67 0.66 0.66 0.71 0.77 0.61 0.51 0.39 0.28 0.27 0.27 0.29 0.25 0.31 0.28 0.19 0.08 0.05 0.05
0.03 0.03 0.03 0.01 0.02 0.02 0.01 0.00 0.00 0.01 0.01 0.01 0.02 0.05 0.51 1.02 0.91 0.56 0.44 0.32 0.40 0.47 0.49 0.47 0.51 0.55 0.62 0.66 0.73 0.74 0.60 0.53 0.38 0.29 0.28 0.25 0.24 0.22 0.17 0.14 0.09 0.04 0.01 0.02
0.02 0.03 0.03 0.04 0.03 0.01 0.01 0.02 0.01 0.01 0.02 0.04 0.05 0.06 0.45 0.86 0.82 0.43 0.26 0.15 0.14 0.20 0.27 0.40 0.37 0.41 0.49 0.59 0.46 0.37 0.36 0.29 0.24 0.20 0.20 0.18 0.13 0.09 0.06 0.04 0.02 0.01 0.01 0.01
0.00 0.01 0.02 0.03 0.02 0.02 0.02 0.02 0.02 0.02 0.03 0.07 0.09 0.12 0.37 0.61 0.56 0.32 0.16 0.04 0.03 0.04 0.12 0.17 0.20 0.19 0.21 0.21 0.18 0.16 0.15 0.13 0.11 0.10 0.08 0.06 0.04 0.02 0.02 0.01 0.01 0.01 0.00 0.01
0.00 0.00 0.01 0.00 0.00 0.00 0.01 0.01 0.02 0.02 0.03 0.04 0.09 0.17 0.39 0.66 0.39 0.14 0.05 0.02 0.01 0.04 0.05 0.04 0.04 0.06 0.06 0.09 0.08 0.05 0.06 0.06 0.04 0.03 0.03 0.02 0.01 0.01 0.01 0.01 0.01 0.01 0.01 0.00
0.00 0.00 0.00 0.00 0.01 0.02 0.01 0.02 0.02 0.01 0.02 0.03 0.07 0.09 0.17 0.28 0.27 0.08 0.01 0.01 0.01 0.01 0.00 0.01 0.00 0.01 0.01 0.02 0.01 0.01 0.01 0.01 0.01 0.01 0.00 0.00 0.01 0.01 0.01 0.01 0.01 0.02 0.02 0.01
0.00 0.00 0.00 0.00 0.03 0.04 0.03 0.06 0.06 0.03 0.02 0.03 0.09 0.13 0.10 0.11 0.18 0.12 0.03 0.01 0.01 0.00 0.00 0.00 0.00 0.00 0.00 0.00 0.00 0.01 0.01 0.01 0.01 0.01 0.01 0.01 0.01 0.01 0.01 0.01 0.01 0.02 0.03 0.03
0.00 0.00 0.00 0.00 0.01 0.03 0.06 0.06 0.07 0.05 0.04 0.04 0.06 0.13 0.20 0.20 0.18 0.14 0.05 0.00 0.00 0.00 0.00 0.00 0.00 0.01 0.01 0.00 0.00 0.00 0.00 0.01 0.01 0.01 0.01 0.02 0.02 0.03 0.03 0.03 0.03 0.03 0.04 0.04
0.01 0.01 0.00 0.00 0.01 0.01 0.02 0.03 0.06 0.07 0.06 0.04 0.03 0.06 0.10 0.16 0.22 0.18 0.09 0.03 0.00 0.00 0.00 0.00 0.00 0.01 0.01 0.00 0.00 0.00 0.01 0.01 0.01 0.01 0.01 0.03 0.02 0.03 0.04 0.05 0.06 0.04 0.04 0.06
0.00 0.00 0.00 0.00 0.03 0.05 0.02 0.02 0.02 0.03 0.04 0.05 0.04 0.06 0.09 0.12 0.13 0.11 0.09 0.10 0.06 0.03 0.01 0.00 0.01 0.02 0.01 0.01 0.01 0.02 0.01 0.02 0.02 0.02 0.03 0.03 0.03 0.04 0.04 0.05 0.06 0.07 0.06 0.06
0.01 0.01 0.01 0.01 0.01 0.03 0.04 0.04 0.04 0.03 0.02 0.01 0.01 0.02 0.04 0.04 0.05 0.04 0.03 0.04 0.06 0.07 0.05 0.02 0.02 0.03 0.02 0.02 0.02 0.02 0.02 0.02 0.02 0.02 0.03 0.03 0.03 0.03 0.03 0.03 0.04 0.04 0.04 0.04
0.03 0.03 0.03 0.02 0.02 0.02 0.04 0.07 0.08 0.07 0.05 0.05 0.03 0.02 0.03 0.03 0.03 0.02 0.02 0.02 0.03 0.06 0.06 0.06 0.06 0.05 0.02 0.02 0.02 0.02 0.02 0.01 0.02 0.01 0.02 0.02 0.02 0.02 0.02 0.02 0.02 0.02 0.02 0.01

GFSNGP_prec_precacc24_225.txt.gz
Total_Precipitation_Accumulation
0.08 0.04 0.02 0.01 0.03 0.08 0.13 0.10 0.13 0.23 0.18 0.11 0.10 0.05 0.02 0.00 0.01 0.00 0.01 0.00 0.01 0.04 0.10 0.17 0.12 0.09 0.07 0.11 0.28 0.45 0.47 0.36 0.31 0.23 0.17 0.15 0.19 0.24 0.31 0.46 0.64 0.72 0.69 0.65
0.04 0.01 0.01 0.03 0.01 0.00 0.02 0.03 0.04 0.02 0.02 0.01 0.01 0.01 0.01 0.00 0.00 0.00 0.00 0.00 0.00 0.00 0.04 0.12 0.04 0.04 0.09 0.13 0.21 0.32 0.58 0.80 0.83 0.79 0.63 0.45 0.34 0.28 0.32 0.40 0.45 0.58 0.71 0.76
0.10 0.02 0.04 0.06 0.00 0.00 0.00 0.00 0.01 0.02 0.01 0.02 0.01 0.02 0.01 0.01 0.01 0.00 0.00 0.00 0.00 0.00 0.00 0.02 0.01 0.01 0.03 0.10 0.15 0.21 0.28 0.37 0.57 0.81 0.97 0.97 0.92 0.82 0.60 0.47 0.51 0.67 0.72 0.65
0.11 0.07 0.09 0.01 0.00 0.00 0.00 0.00 0.00 0.00 0.00 0.00 0.00 0.01 0.00 0.00 0.00 0.00 0.00 0.00 0.00 0.00 0.00 0.00 0.03 0.03 0.02 0.02 0.04 0.06 0.12 0.21 0.27 0.28 0.37 0.51 0.63 0.78 0.88 0.81 0.80 0.79 0.71 0.74
0.16 0.08 0.02 0.00 0.00 0.00 0.00 0.00 0.00 0.00 0.00 0.00 0.00 0.00 0.00 0.00 0.00 0.01 0.01 0.01 0.00 0.01 0.02 0.03 0.08 0.07 0.04 0.04 0.03 0.03 0.03 0.04 0.06 0.08 0.10 0.14 0.23 0.35 0.41 0.48 0.56 0.71 0.76 0.69
0.12 0.16 0.07 0.10 0.01 0.00 0.00 0.02 0.00 0.00 0.00 0.00 0.00 0.00 0.00 0.00 0.00 0.01 0.02 0.02 0.02 0.02 0.04 0.03 0.06 0.20 0.20 0.11 0.07 0.05 0.02 0.01 0.01 0.01 0.02 0.03 0.05 0.09 0.18 0.26 0.33 0.43 0.57 0.63
0.14 0.20 0.12 0.06 0.01 0.00 0.04 0.08 0.00 0.00 0.00 0.00 0.00 0.00 0.00 0.00 0.00 0.00 0.01 0.02 0.03 0.02 0.02 0.02 0.03 0.13 0.26 0.25 0.16 0.10 0.07 0.04 0.02 0.02 0.05 0.05 0.03 0.03 0.06 0.11 0.17 0.23 0.29 0.41
0.27 0.29 0.18 0.02 0.02 0.04 0.10 0.03 0.00 0.00 0.00 0.00 0.00 0.00 0.00 0.00 0.00 0.00 0.00 0.07 0.15 0.10 0.05 0.04 0.04 0.05 0.13 0.20 0.16 0.11 0.08 0.05 0.03 0.02 0.02 0.05 0.05 0.03 0.03 0.04 0.08 0.12 0.14 0.18
0.23 0.33 0.10 0.01 0.02 0.00 0.00 0.00 0.00 0.00 0.00 0.00 0.00 0.00 0.05 0.06 0.02 0.01 0.03 0.15 0.19 0.18 0.22 0.14 0.05 0.05 0.07 0.15 0.14 0.17 0.16 0.08 0.05 0.07 0.06 0.03 0.02 0.02 0.01 0.00 0.01 0.01 0.02 0.05
0.11 0.11 0.08 0.05 0.03 0.01 0.00 0.00 0.00 0.00 0.00 0.00 0.01 0.01 0.37 0.51 0.42 0.35 0.19 0.20 0.23 0.14 0.16 0.17 0.20 0.12 0.14 0.13 0.13 0.12 0.14 0.17 0.20 0.13 0.16 0.17 0.10 0.07 0.03 0.01 0.00 0.01 0.01 0.01
0.10 0.11 0.14 0.06 0.03 0.01 0.00 0.00 0.00 0.00 0.00 0.00 0.02 0.03 0.33 0.69 0.66 0.84 0.60 0.31 0.39 0.24 0.21 0.16 0.23 0.25 0.21 0.18 0.14 0.16 0.11 0.19 0.21 0.24 0.26 0.21 0.27 0.26 0.14 0.08 0.09 0.03 0.01 0.02
0.06 0.04 0.02 0.01 0.01 0.00 0.00 0.00 0.00 0.00 0.00 0.00 0.06 0.16 0.15 0.18 0.41 0.44 0.80 0.70 0.62 0.49 0.41 0.33 0.22 0.27 0.29 0.30 0.19 0.26 0.16 0.11 0.22 0.18 0.19 0.24 0.23 0.36 0.44 0.34 0.28 0.23 0.19 0.15
0.00 0.00 0.00 0.00 0.00 0.00 0.00 0.00 0.00 0.00 0.00 0.00 0.06 0.32 0.47 0.21 0.41 0.46 0.66 0.59 0.66 0.71 0.66 0.52 0.29 0.28 0.42 0.38 0.35 0.38 0.30 0.15 0.18 0.21 0.14 0.15 0.24 0.22 0.23 0.32 0.32 0.33 0.33 0.31
0.00 0.00 0.00 0.00 0.00 0.00 0.00 0.00 0.00 0.00 0.00 0.00 0.03 0.24 0.86 0.53 0.46 0.57 0.55 0.39 0.57 0.71 0.86 0.90 0.50 0.35 0.42 0.60 0.53 0.54 0.50 0.36 0.21 0.18 0.18 0.13 0.17 0.28 0.21 0.19 0.26 0.31 0.32 0.32
0.01 0.01 0.00 0.00 0.00 0.00 0.00 0.00 0.00 0.00 0.00 0.00 0.01 0.13 0.38 0.74 0.81 0.75 0.62 0.53 0.60 0.65 0.86 0.91 0.63 0.54 0.55 0.67 0.75 0.72 0.69 0.54 0.39 0.27 0.22 0.24 0.22 0.26 0.33 0.27 0.23 0.21 0.24 0.28
0.07 0.03 0.01 0.00 0.00 0.00 0.00 0.00 0.00 0.00 0.00 0.00 0.01 0.03 0.25 1.00 1.43 1.10 0.68 0.48 0.51 0.62 0.66 0.56 0.56 0.74 0.77 0.73 0.77 0.81 0.64 0.59 0.50 0.33 0.31 0.29 0.30 0.27 0.35 0.36 0.31 0.19 0.13 0.12
0.00 0.02 0.03 0.01 0.01 0.02 0.01 0.00 0.00 0.01 0.01 0.00 0.01 0.02 0.42 0.99 0.91 0.56 0.45 0.34 0.43 0.53 0.56 0.53 0.59 0.65 0.71 0.75 0.79 0.78 0.65 0.59 0.46 0.37 0.36 0.31 0.29 0.31 0.31 0.37 0.32 0.21 0.15 0.09
0.00 0.02 0.02 0.01 0.01 0.01 0.00 0.00 0.01 0.01 0.01 0.03 0.05 0.04 0.42 0.82 0.82 0.43 0.26 0.15 0.14 0.22 0.33 0.45 0.44 0.50 0.59 0.70 0.52 0.43 0.43 0.36 0.33 0.31 0.32 0.35 0.31 0.30 0.29 0.33 0.32 0.21 0.16 0.09
0.00 0.01 0.01 0.00 0.00 0.00 0.00 0.01 0.01 0.02 0.02 0.05 0.07 0.11 0.31 0.58 0.56 0.32 0.16 0.05 0.03 0.04 0.13 0.22 0.28 0.27 0.31 0.34 0.28 0.23 0.24 0.23 0.22 0.24 0.24 0.27 0.24 0.23 0.24 0.29 0.27 0.16 0.08 0.05
0.00 0.00 0.01 0.00 0.00 0.00 0.01 0.01 0.02 0.02 0.02 0.04 0.09 0.15 0.27 0.58 0.39 0.14 0.05 0.03 0.02 0.04 0.05 0.05 0.07 0.15 0.17 0.21 0.19 0.14 0.15 0.17 0.16 0.16 0.15 0.14 0.13 0.14 0.16 0.17 0.13 0.08 0.05 0.02
0.00 0.00 0.00 0.00 0.00 0.01 0.01 0.01 0.02 0.01 0.02 0.03 0.06 0.08 0.16 0.27 0.27 0.08 0.01 0.01 0.01 0.01 0.00 0.01 0.00 0.01 0.04 0.11 0.10 0.07 0.09 0.08 0.07 0.09 0.08 0.07 0.05 0.05 0.04 0.04 0.02 0.02 0.01 0.00
0.00 0.00 0.00 0.00 0.01 0.01 0.02 0.03 0.04 0.02 0.02 0.03 0.05 0.07 0.10 0.11 0.18 0.12 0.03 0.01 0.01 0.00 0.00 0.00 0.00 0.00 0.00 0.01 0.01 0.01 0.01 0.02 0.02 0.02 0.01 0.01 0.01 0.01 0.01 0.01 0.01 0.01 0.02 0.02
0.00 0.00 0.01 0.00 0.00 0.01 0.03 0.03 0.04 0.03 0.03 0.04 0.06 0.09 0.16 0.20 0.18 0.15 0.06 0.00 0.00 0.00 0.00 0.00 0.00 0.01 0.01 0.00 0.00 0.00 0.00 0.01 0.01 0.01 0.01 0.01 0.01 0.02 0.02 0.02 0.02 0.02 0.03 0.03
0.01 0.01 0.01 0.00 0.01 0.01 0.02 0.02 0.04 0.06 0.05 0.04 0.03 0.06 0.10 0.16 0.22 0.19 0.09 0.03 0.00 0.00 0.00 0.00 0.00 0.00 0.01 0.01 0.00 0.00 0.01 0.01 0.01 0.01 0.01 0.02 0.01 0.02 0.03 0.03 0.04 0.04 0.04 0.05
0.00 0.00 0.00 0.00 0.02 0.04 0.03 0.02 0.03 0.03 0.06 0.10 0.07 0.06 0.09 0.13 0.17 0.14 0.09 0.10 0.06 0.03 0.01 0.00 0.01 0.02 0.01 0.01 0.01 0.02 0.01 0.02 0.02 0.02 0.02 0.02 0.03 0.03 0.03 0.04 0.04 0.05 0.05 0.05
0.01 0.01 0.01 0.01 0.01 0.01 0.03 0.04 0.04 0.04 0.06 0.09 0.08 0.03 0.04 0.04 0.05 0.04 0.04 0.04 0.06 0.07 0.05 0.02 0.03 0.04 0.02 0.02 0.02 0.02 0.02 0.02 0.02 0.02 0.03 0.03 0.02 0.02 0.03 0.03 0.03 0.03 0.03 0.03
0.03 0.03 0.03 0.02 0.02 0.02 0.03 0.06 0.08 0.10 0.15 0.12 0.04 0.02 0.03 0.03 0.03 0.02 0.03 0.02 0.03 0.06 0.06 0.06 0.07 0.06 0.03 0.02 0.02 0.02 0.01 0.01 0.01 0.01 0.02 0.02 0.02 0.02 0.02 0.01 0.01 0.02 0.02 0.01

GFSNGP_prec_precacc24_231.txt.gz
Total_Precipitation_Accumulation
0.08 0.06 0.03 0.02 0.03 0.06 0.12 0.12 0.18 0.36 0.31 0.35 0.53 0.44 0.25 0.17 0.23 0.26 0.19 0.15 0.20 0.19 0.08 0.06 0.04 0.03 0.01 0.01 0.01 0.01 0.00 0.01 0.02 0.03 0.05 0.06 0.10 0.16 0.26 0.43 0.62 0.69 0.68 0.65
0.00 0.00 0.01 0.02 0.01 0.00 0.02 0.05 0.06 0.05 0.08 0.11 0.15 0.12 0.10 0.08 0.06 0.03 0.01 0.01 0.01 0.01 0.01 0.00 0.01 0.01 0.02 0.02 0.01 0.01 0.02 0.03 0.03 0.07 0.16 0.13 0.15 0.19 0.26 0.34 0.40 0.52 0.66 0.73
0.00 0.00 0.00 0.05 0.01 0.00 0.00 0.01 0.02 0.03 0.07 0.11 0.08 0.09 0.13 0.08 0.03 0.00 0.00 0.00 0.00 0.00 0.00 0.00 0.01 0.01 0.00 0.00 0.01 0.01 0.01 0.01 0.01 0.01 0.23 0.40 0.44 0.57 0.49 0.41 0.45 0.63 0.69 0.62
0.03 0.01 0.02 0.19 0.02 0.00 0.00 0.01 0.01 0.01 0.01 0.00 0.01 0.01 0.00 0.01 0.00 0.00 0.00 0.00 0.00 0.00 0.00 0.00 0.00 0.00 0.01 0.01 0.00 0.00 0.01 0.01 0.00 0.00 0.04 0.17 0.32 0.44 0.59 0.67 0.71 0.75 0.68 0.71
0.06 0.03 0.02 0.10 0.05 0.05 0.04 0.02 0.02 0.01 0.00 0.00 0.00 0.00 0.00 0.00 0.00 0.00 0.00 0.00 0.00 0.00 0.00 0.00 0.00 0.01 0.02 0.04 0.03 0.02 0.01 0.01 0.00 0.00 0.00 0.01 0.06 0.12 0.20 0.34 0.49 0.67 0.73 0.68
0.06 0.08 0.10 0.25 0.05 0.01 0.02 0.10 0.04 0.02 0.01 0.00 0.00 0.00 0.00 0.00 0.00 0.00 0.00 0.00 0.00 0.00 0.00 0.00 0.00 0.02 0.06 0.09 0.06 0.05 0.02 0.01 0.00 0.00 0.00 0.00 0.00 0.03 0.12 0.21 0.31 0.41 0.55 0.62
0.11 0.12 0.09 0.06 0.03 0.01 0.16 0.26 0.04 0.02 0.01 0.00 0.00 0.00 0.00 0.00 0.00 0.00 0.00 0.00 0.00 0.00 0.00 0.00 0.00 0.07 0.10 0.15 0.14 0.10 0.07 0.03 0.02 0.02 0.05 0.05 0.02 0.01 0.04 0.09 0.15 0.22 0.28 0.41
0.25 0.30 0.25 0.03 0.03 0.12 0.28 0.08 0.00 0.00 0.00 0.00 0.00 0.00 0.00 0.00 0.00 0.00 0.00 0.00 0.00 0.00 0.00 0.00 0.00 0.02 0.09 0.17 0.14 0.09 0.08 0.05 0.03 0.02 0.02 0.05 0.05 0.03 0.02 0.03 0.07 0.10 0.13 0.17
0.31 0.40 0.16 0.04 0.05 0.01 0.00 0.00 0.00 0.00 0.00 0.00 0.00 0.00 0.00 0.00 0.00 0.00 0.00 0.00 0.00 0.00 0.00 0.00 0.00 0.01 0.05 0.12 0.12 0.16 0.16 0.08 0.04 0.07 0.05 0.02 0.02 0.02 0.01 0.00 0.01 0.01 0.02 0.05
0.31 0.22 0.09 0.12 0.07 0.01 0.00 0.00 0.00 0.00 0.00 0.00 0.00 0.00 0.00 0.00 0.00 0.00 0.01 0.01 0.00 0.00 0.00 0.00 0.01 0.04 0.10 0.10 0.10 0.10 0.14 0.16 0.19 0.13 0.16 0.17 0.09 0.07 0.03 0.01 0.00 0.00 0.00 0.01
0.11 0.14 0.15 0.08 0.03 0.01 0.00 0.00 0.00 0.00 0.00 0.00 0.00 0.00 0.00 0.00 0.00 0.02 0.11 0.10 0.09 0.05 0.04 0.04 0.05 0.12 0.16 0.13 0.10 0.13 0.10 0.18 0.20 0.24 0.25 0.21 0.27 0.26 0.14 0.07 0.08 0.02 0.01 0.02
0.06 0.04 0.02 0.01 0.01 0.00 0.00 0.00 0.00 0.00 0.00 0.00 0.00 0.00 0.00 0.00 0.00 0.08 0.28 0.33 0.28 0.25 0.24 0.20 0.16 0.22 0.26 0.28 0.17 0.25 0.16 0.10 0.21 0.18 0.18 0.24 0.23 0.36 0.44 0.34 0.28 0.23 0.19 0.15
0.00 0.00 0.00 0.00 0.00 0.00 0.00 0.00 0.00 0.00 0.00 0.00 0.00 0.00 0.00 0.00 0.01 0.16 0.36 0.49 0.62 0.65 0.61 0.49 0.27 0.27 0.38 0.38 0.35 0.38 0.30 0.16 0.18 0.21 0.14 0.15 0.24 0.23 0.24 0.33 0.32 0.34 0.34 0.32
0.00 0.00 0.00 0.00 0.00 0.00 0.00 0.00 0.00 0.00 0.00 0.00 0.00 0.00 0.00 0.01 0.03 0.22 0.39 0.39 0.57 0.71 0.85 0.90 0.50 0.35 0.42 0.60 0.54 0.55 0.52 0.42 0.24 0.20 0.20 0.15 0.18 0.29 0.23 0.20 0.27 0.31 0.33 0.32
0.01 0.01 0.01 0.00 0.00 0.00 0.00 0.00 0.00 0.00 0.00 0.00 0.00 0.00 0.01 0.03 0.17 0.49 0.60 0.53 0.60 0.65 0.86 0.91 0.63 0.54 0.55 0.69 0.80 0.78 0.77 0.61 0.45 0.33 0.27 0.28 0.25 0.29 0.35 0.28 0.24 0.21 0.24 0.29
0.07 0.03 0.00 0.00 0.00 0.00 0.00 0.00 0.00 0.00 0.00 0.00 0.00 0.00 0.01 0.27 0.85 1.01 0.66 0.48 0.52 0.64 0.66 0.57 0.57 0.75 0.80 0.81 0.88 0.91 0.73 0.71 0.59 0.42 0.39 0.37 0.37 0.34 0.42 0.39 0.32 0.20 0.15 0.14
0.00 0.00 0.01 0.00 0.00 0.00 0.00 0.00 0.00 0.01 0.01 0.00 0.01 0.01 0.06 0.54 0.75 0.54 0.45 0.34 0.44 0.53 0.57 0.55 0.61 0.67 0.77 0.86 0.93 0.87 0.77 0.68 0.53 0.45 0.45 0.41 0.40 0.41 0.40 0.43 0.36 0.24 0.20 0.16
0.00 0.00 0.00 0.01 0.00 0.00 0.00 0.00 0.01 0.01 0.01 0.02 0.02 0.04 0.20 0.40 0.75 0.42 0.26 0.15 0.14 0.22 0.33 0.45 0.45 0.51 0.62 0.77 0.61 0.53 0.57 0.47 0.41 0.39 0.42 0.48 0.47 0.45 0.41 0.45 0.42 0.32 0.31 0.29
0.00 0.00 0.00 0.00 0.00 0.00 0.00 0.01 0.01 0.02 0.01 0.03 0.03 0.09 0.23 0.30 0.53 0.32 0.16 0.05 0.03 0.04 0.13 0.22 0.28 0.28 0.33 0.38 0.36 0.32 0.35 0.33 0.30 0.32 0.35 0.36 0.36 0.38 0.39 0.48 0.48 0.41 0.32 0.30
0.00 0.00 0.00 0.00 0.00 0.00 0.01 0.01 0.02 0.01 0.01 0.02 0.06 0.13 0.16 0.14 0.30 0.14 0.05 0.03 0.03 0.05 0.05 0.05 0.07 0.15 0.18 0.25 0.25 0.21 0.25 0.29 0.30 0.32 0.31 0.28 0.25 0.28 0.34 0.43 0.43 0.45 0.39 0.32
0.00 0.00 0.00 0.00 0.00 0.00 0.01 0.01 0.01 0.01 0.01 0.02 0.05 0.04 0.05 0.07 0.17 0.08 0.01 0.01 0.01 0.01 0.00 0.01 0.00 0.02 0.05 0.13 0.14 0.14 0.18 0.23 0.23 0.26 0.26 0.27 0.25 0.26 0.29 0.33 0.35 0.36 0.34 0.32
0.00 0.00 0.00 0.00 0.00 0.01 0.01 0.00 0.01 0.01 0.01 0.01 0.01 0.02 0.02 0.05 0.12 0.11 0.03 0.02 0.01 0.00 0.00 0.00 0.00 0.02 0.02 0.02 0.01 0.02 0.04 0.08 0.11 0.14 0.14 0.16 0.18 0.21 0.24 0.26 0.27 0.28 0.28 0.26
0.00 0.00 0.00 0.00 0.01 0.01 0.01 0.01 0.01 0.01 0.01 0.01 0.02 0.02 0.03 0.05 0.11 0.15 0.07 0.01 0.00 0.00 0.00 0.00 0.00 0.01 0.02 0.02 0.01 0.02 0.01 0.02 0.02 0.05 0.09 0.09 0.09 0.11 0.12 0.14 0.14 0.16 0.17 0.16
0.01 0.00 0.00 0.00 0.00 0.01 0.01 0.01 0.01 0.01 0.00 0.02 0.02 0.04 0.09 0.17 0.18 0.17 0.11 0.04 0.01 0.00 0.00 0.00 0.01 0.01 0.02 0.02 0.02 0.01 0.02 0.02 0.02 0.02 0.02 0.04 0.04 0.04 0.04 0.04 0.04 0.05 0.05 0.06
0.00 0.00 0.00 0.00 0.00 0.01 0.01 0.01 0.02 0.02 0.03 0.09 0.14 0.19 0.20 0.16 0.16 0.13 0.10 0.11 0.07 0.03 0.02 0.01 0.02 0.02 0.02 0.03 0.03 0.03 0.03 0.03 0.02 0.02 0.02 0.02 0.02 0.03 0.03 0.03 0.03 0.03 0.03 0.03
0.01 0.01 0.00 0.00 0.00 0.00 0.01 0.02 0.04 0.04 0.06 0.12 0.13 0.09 0.05 0.04 0.05 0.04 0.03 0.04 0.06 0.07 0.07 0.03 0.04 0.05 0.04 0.04 0.03 0.02 0.03 0.03 0.02 0.02 0.02 0.02 0.01 0.02 0.02 0.02 0.02 0.02 0.02 0.02
0.03 0.03 0.03 0.02 0.02 0.02 0.03 0.05 0.07 0.11 0.15 0.13 0.03 0.01 0.02 0.03 0.03 0.02 0.03 0.02 0.04 0.07 0.10 0.08 0.07 0.07 0.06 0.05 0.03 0.02 0.02 0.02 0.01 0.01 0.01 0.02 0.01 0.02 0.01 0.01 0.01 0.01 0.01 0.01

GFSNGP_prec_precacc24_237.txt.gz
Total_Precipitation_Accumulation
0.05 0.03 0.05 0.10 0.05 0.08 0.24 0.33 0.50 0.82 0.74 0.85 0.98 0.92 0.75 0.58 0.52 0.45 0.32 0.28 0.47 0.58 0.44 0.37 0.30 0.23 0.15 0.10 0.08 0.05 0.02 0.02 0.02 0.02 0.02 0.02 0.02 0.02 0.05 0.20 0.30 0.38 0.32 0.38
0.00 0.00 0.01 0.01 0.00 0.03 0.13 0.24 0.38 0.29 0.67 0.80 0.70 0.53 0.45 0.33 0.15 0.07 0.03 0.02 0.02 0.07 0.16 0.19 0.25 0.26 0.22 0.14 0.08 0.07 0.08 0.05 0.04 0.04 0.02 0.01 0.01 0.02 0.03 0.02 0.09 0.23 0.37 0.33
0.00 0.00 0.00 0.10 0.19 0.16 0.18 0.24 0.28 0.44 0.91 0.60 0.43 0.38 0.33 0.14 0.04 0.00 0.00 0.00 0.00 0.00 0.01 0.04 0.10 0.13 0.17 0.17 0.12 0.08 0.07 0.06 0.05 0.04 0.03 0.01 0.02 0.01 0.02 0.07 0.05 0.02 0.05 0.12
0.01 0.01 0.02 0.36 0.11 0.15 0.20 0.19 0.27 0.28 0.26 0.16 0.08 0.04 0.01 0.01 0.01 0.00 0.00 0.00 0.00 0.00 0.00 0.00 0.00 0.02 0.04 0.07 0.10 0.10 0.08 0.05 0.04 0.03 0.02 0.02 0.01 0.00 0.00 0.00 0.03 0.06 0.03 0.02
0.04 0.02 0.03 0.16 0.12 0.17 0.19 0.17 0.15 0.08 0.07 0.04 0.01 0.00 0.00 0.00 0.00 0.00 0.00 0.00 0.00 0.00 0.00 0.00 0.00 0.00 0.01 0.02 0.04 0.04 0.05 0.05 0.03 0.02 0.02 0.02 0.01 0.01 0.00 0.00 0.00 0.00 0.01 0.02
0.05 0.06 0.12 0.26 0.05 0.03 0.09 0.17 0.10 0.02 0.01 0.00 0.00 0.00 0.00 0.00 0.00 0.00 0.00 0.00 0.00 0.00 0.00 0.00 0.00 0.00 0.00 0.00 0.01 0.01 0.02 0.02 0.02 0.02 0.02 0.01 0.01 0.01 0.00 0.00 0.00 0.00 0.00 0.01
0.08 0.10 0.08 0.06 0.03 0.01 0.26 0.32 0.04 0.02 0.01 0.00 0.00 0.00 0.00 0.00 0.00 0.00 0.00 0.00 0.00 0.00 0.00 0.00 0.00 0.00 0.00 0.00 0.00 0.00 0.00 0.01 0.01 0.01 0.00 0.01 0.00 0.00 0.00 0.00 0.00 0.00 0.00 0.02
0.24 0.28 0.24 0.03 0.03 0.13 0.30 0.08 0.00 0.00 0.00 0.00 0.00 0.00 0.00 0.00 0.00 0.00 0.00 0.00 0.00 0.00 0.00 0.00 0.00 0.00 0.00 0.00 0.00 0.00 0.01 0.01 0.02 0.01 0.01 0.01 0.00 0.00 0.00 0.00 0.00 0.00 0.01 0.03
0.32 0.41 0.16 0.04 0.05 0.01 0.00 0.00 0.00 0.00 0.00 0.00 0.00 0.00 0.00 0.00 0.00 0.00 0.00 0.00 0.00 0.00 0.00 0.00 0.00 0.00 0.00 0.00 0.00 0.00 0.01 0.02 0.01 0.02 0.03 0.02 0.01 0.01 0.00 0.00 0.00 0.00 0.00 0.02
0.31 0.22 0.09 0.12 0.07 0.01 0.00 0.00 0.00 0.00 0.00 0.00 0.00 0.00 0.00 0.00 0.00 0.00 0.00 0.00 0.00 0.00 0.00 0.00 0.00 0.00 0.00 0.00 0.00 0.01 0.02 0.03 0.13 0.12 0.13 0.15 0.08 0.06 0.03 0.01 0.00 0.00 0.00 0.00
0.11 0.14 0.15 0.08 0.03 0.01 0.00 0.00 0.00 0.00 0.00 0.00 0.00 0.00 0.00 0.00 0.00 0.00 0.00 0.00 0.00 0.00 0.00 0.00 0.00 0.00 0.00 0.00 0.00 0.01 0.02 0.07 0.17 0.24 0.25 0.20 0.26 0.25 0.14 0.07 0.08 0.02 0.01 0.02
0.06 0.04 0.02 0.01 0.01 0.00 0.00 0.00 0.00 0.00 0.00 0.00 0.00 0.00 0.00 0.00 0.00 0.00 0.01 0.01 0.01 0.01 0.00 0.01 0.02 0.05 0.02 0.00 0.00 0.02 0.05 0.08 0.20 0.17 0.18 0.23 0.22 0.35 0.43 0.34 0.28 0.22 0.19 0.15
0.00 0.00 0.00 0.00 0.00 0.00 0.00 0.00 0.00 0.00 0.00 0.00 0.00 0.00 0.00 0.00 0.00 0.01 0.01 0.01 0.01 0.02 0.06 0.08 0.07 0.14 0.12 0.06 0.03 0.10 0.19 0.13 0.17 0.22 0.14 0.15 0.24 0.23 0.24 0.32 0.33 0.34 0.34 0.32
0.00 0.00 0.00 0.00 0.00 0.00 0.00 0.00 0.00 0.00 0.00 0.00 0.00 0.00 0.00 0.01 0.01 0.01 0.02 0.05 0.10 0.13 0.13 0.21 0.17 0.20 0.18 0.24 0.22 0.25 0.37 0.38 0.25 0.21 0.21 0.16 0.20 0.31 0.24 0.21 0.27 0.31 0.33 0.32
0.01 0.01 0.01 0.00 0.00 0.00 0.00 0.00 0.00 0.00 0.00 0.00 0.00 0.00 0.01 0.01 0.03 0.08 0.16 0.19 0.21 0.25 0.29 0.36 0.31 0.33 0.37 0.38 0.56 0.65 0.70 0.61 0.46 0.33 0.28 0.30 0.26 0.31 0.38 0.30 0.25 0.22 0.24 0.29
0.07 0.03 0.00 0.00 0.00 0.00 0.00 0.00 0.00 0.00 0.00 0.00 0.00 0.00 0.01 0.05 0.16 0.27 0.28 0.28 0.38 0.46 0.43 0.40 0.44 0.65 0.72 0.74 0.84 0.89 0.74 0.74 0.61 0.43 0.40 0.38 0.39 0.37 0.44 0.42 0.35 0.22 0.16 0.14
0.00 0.00 0.00 0.00 0.00 0.00 0.00 0.00 0.00 0.01 0.01 0.00 0.01 0.01 0.04 0.14 0.21 0.20 0.21 0.26 0.40 0.49 0.52 0.50 0.58 0.66 0.76 0.86 0.93 0.88 0.77 0.69 0.57 0.46 0.46 0.42 0.42 0.44 0.43 0.46 0.40 0.27 0.21 0.16
0.00 0.00 0.00 0.00 0.00 0.00 0.00 0.00 0.00 0.01 0.01 0.01 0.02 0.03 0.12 0.14 0.19 0.21 0.21 0.15 0.14 0.21 0.32 0.45 0.44 0.51 0.62 0.77 0.61 0.53 0.57 0.48 0.42 0.40 0.43 0.49 0.47 0.47 0.44 0.48 0.46 0.36 0.34 0.33
0.00 0.00 0.00 0.00 0.00 0.00 0.00 0.00 0.01 0.01 0.01 0.01 0.01 0.04 0.06 0.12 0.16 0.14 0.13 0.05 0.03 0.04 0.12 0.21 0.27 0.27 0.33 0.39 0.36 0.33 0.36 0.34 0.31 0.33 0.35 0.37 0.36 0.39 0.41 0.52 0.52 0.45 0.38 0.38
0.00 0.00 0.00 0.00 0.00 0.00 0.00 0.00 0.00 0.00 0.00 0.00 0.01 0.02 0.01 0.03 0.10 0.10 0.04 0.03 0.03 0.06 0.05 0.05 0.07 0.15 0.18 0.25 0.26 0.22 0.26 0.31 0.32 0.34 0.32 0.30 0.28 0.29 0.35 0.45 0.45 0.49 0.45 0.37
0.00 0.00 0.00 0.00 0.00 0.00 0.00 0.00 0.00 0.00 0.00 0.00 0.01 0.01 0.01 0.01 0.03 0.03 0.03 0.02 0.01 0.01 0.00 0.00 0.00 0.02 0.05 0.14 0.15 0.14 0.18 0.26 0.27 0.31 0.31 0.33 0.30 0.29 0.32 0.37 0.38 0.39 0.39 0.38
0.00 0.00 0.00 0.00 0.00 0.00 0.00 0.00 0.00 0.00 0.00 0.00 0.00 0.01 0.01 0.01 0.01 0.03 0.04 0.06 0.02 0.00 0.00 0.00 0.00 0.02 0.03 0.02 0.02 0.03 0.04 0.09 0.15 0.19 0.18 0.22 0.26 0.27 0.31 0.32 0.34 0.35 0.34 0.33
0.00 0.00 0.00 0.00 0.00 0.00 0.00 0.00 0.00 0.00 0.00 0.01 0.01 0.01 0.02 0.02 0.04 0.08 0.07 0.01 0.00 0.01 0.01 0.01 0.01 0.01 0.03 0.02 0.01 0.02 0.02 0.02 0.03 0.10 0.17 0.18 0.20 0.21 0.23 0.26 0.29 0.31 0.31 0.31
0.01 0.00 0.00 0.00 0.00 0.01 0.01 0.00 0.00 0.00 0.00 0.02 0.02 0.03 0.06 0.10 0.09 0.06 0.04 0.01 0.01 0.01 0.01 0.01 0.01 0.01 0.02 0.03 0.02 0.02 0.02 0.02 0.03 0.03 0.07 0.14 0.17 0.17 0.16 0.16 0.19 0.23 0.26 0.29
0.00 0.00 0.00 0.00 0.00 0.01 0.01 0.01 0.01 0.01 0.03 0.09 0.13 0.18 0.17 0.09 0.08 0.05 0.01 0.01 0.02 0.02 0.02 0.02 0.02 0.04 0.05 0.05 0.03 0.03 0.03 0.04 0.04 0.02 0.02 0.03 0.06 0.13 0.16 0.15 0.16 0.16 0.13 0.13
0.01 0.01 0.00 0.00 0.00 0.00 0.01 0.02 0.03 0.04 0.05 0.12 0.13 0.08 0.04 0.01 0.01 0.01 0.01 0.02 0.03 0.04 0.08 0.05 0.06 0.08 0.08 0.06 0.05 0.04 0.03 0.04 0.04 0.03 0.03 0.03 0.02 0.02 0.05 0.10 0.11 0.08 0.05 0.04
0.00 0.02 0.02 0.02 0.02 0.02 0.03 0.04 0.07 0.11 0.15 0.12 0.03 0.00 0.01 0.02 0.02 0.01 0.02 0.02 0.04 0.08 0.11 0.10 0.11 0.11 0.10 0.07 0.06 0.05 0.03 0.03 0.04 0.03 0.02 0.02 0.02 0.03 0.02 0.03 0.03 0.03 0.03 0.03

GFSNGP_prec_precacc24_240.txt.gz
Total_Precipitation_Accumulation
0.05 0.03 0.07 0.18 0.11 0.16 0.38 0.46 0.66 1.01 0.92 1.12 1.20 1.06 0.83 0.62 0.53 0.46 0.33 0.29 0.49 0.64 0.60 0.60 0.49 0.37 0.29 0.17 0.16 0.12 0.08 0.08 0.11 0.13 0.10 0.09 0.09 0.11 0.11 0.18 0.28 0.44 0.58 0.71
0.00 0.00 0.01 0.02 0.03 0.06 0.21 0.37 0.57 0.35 0.91 1.05 0.81 0.56 0.45 0.33 0.15 0.07 0.03 0.02 0.02 0.08 0.21 0.34 0.44 0.43 0.41 0.29 0.18 0.13 0.14 0.12 0.08 0.10 0.07 0.07 0.06 0.05 0.06 0.04 0.10 0.22 0.41 0.46
0.00 0.00 0.00 0.11 0.34 0.21 0.22 0.30 0.33 0.56 1.11 0.67 0.44 0.38 0.33 0.14 0.04 0.00 0.00 0.00 0.00 0.00 0.02 0.08 0.20 0.24 0.28 0.35 0.25 0.19 0.14 0.12 0.11 0.09 0.10 0.06 0.09 0.06 0.04 0.11 0.07 0.03 0.06 0.13
0.01 0.00 0.03 0.37 0.15 0.24 0.22 0.21 0.29 0.30 0.29 0.19 0.09 0.04 0.01 0.01 0.01 0.00 0.00 0.00 0.00 0.00 0.00 0.00 0.03 0.08 0.12 0.14 0.19 0.18 0.16 0.13 0.10 0.09 0.08 0.07 0.06 0.07 0.08 0.03 0.07 0.11 0.06 0.02
0.04 0.02 0.03 0.16 0.12 0.22 0.21 0.19 0.15 0.08 0.07 0.04 0.01 0.00 0.00 0.00 0.00 0.00 0.00 0.00 0.00 0.00 0.00 0.00 0.00 0.01 0.03 0.07 0.09 0.10 0.11 0.10 0.08 0.09 0.08 0.06 0.06 0.07 0.06 0.06 0.03 0.02 0.04 0.05
0.03 0.06 0.13 0.26 0.05 0.04 0.16 0.18 0.10 0.02 0.01 0.00 0.00 0.00 0.00 0.00 0.00 0.00 0.00 0.00 0.00 0.00 0.00 0.00 0.00 0.00 0.00 0.01 0.02 0.04 0.06 0.06 0.04 0.04 0.05 0.04 0.03 0.03 0.04 0.04 0.02 0.01 0.01 0.00
0.06 0.08 0.08 0.06 0.03 0.01 0.27 0.33 0.05 0.02 0.01 0.00 0.00 0.00 0.00 0.00 0.00 0.00 0.00 0.00 0.00 0.00 0.00 0.00 0.00 0.00 0.00 0.00 0.00 0.00 0.00 0.01 0.02 0.02 0.02 0.02 0.01 0.01 0.01 0.01 0.01 0.01 0.00 0.01
0.19 0.25 0.24 0.03 0.03 0.13 0.31 0.11 0.01 0.00 0.00 0.00 0.00 0.00 0.00 0.00 0.00 0.00 0.00 0.00 0.00 0.00 0.00 0.00 0.00 0.00 0.00 0.00 0.00 0.00 0.00 0.00 0.00 0.00 0.01 0.02 0.01 0.01 0.01 0.01 0.01 0.01 0.01 0.00
0.31 0.40 0.16 0.04 0.05 0.01 0.01 0.02 0.00 0.00 0.00 0.00 0.00 0.00 0.00 0.00 0.00 0.00 0.00 0.00 0.00 0.00 0.00 0.00 0.00 0.00 0.00 0.00 0.00 0.00 0.00 0.00 0.00 0.00 0.00 0.01 0.01 0.01 0.01 0.00 0.00 0.00 0.00 0.00
0.30 0.21 0.09 0.12 0.07 0.01 0.00 0.00 0.00 0.00 0.00 0.00 0.00 0.00 0.00 0.00 0.00 0.00 0.00 0.00 0.00 0.00 0.00 0.00 0.00 0.00 0.00 0.00 0.00 0.00 0.00 0.00 0.00 0.01 0.01 0.02 0.03 0.01 0.01 0.01 0.00 0.00 0.00 0.00
0.10 0.14 0.15 0.08 0.03 0.01 0.00 0.00 0.00 0.00 0.00 0.00 0.00 0.00 0.00 0.00 0.00 0.00 0.00 0.00 0.00 0.00 0.00 0.00 0.00 0.00 0.00 0.00 0.00 0.00 0.00 0.00 0.01 0.02 0.06 0.03 0.09 0.11 0.07 0.04 0.05 0.02 0.01 0.02
0.06 0.04 0.02 0.01 0.01 0.00 0.00 0.00 0.00 0.00 0.00 0.00 0.00 0.00 0.00 0.00 0.00 0.00 0.01 0.01 0.01 0.01 0.00 0.00 0.00 0.00 0.00 0.00 0.00 0.00 0.00 0.00 0.04 0.05 0.06 0.11 0.08 0.24 0.32 0.28 0.23 0.19 0.17 0.14
0.00 0.00 0.00 0.00 0.00 0.00 0.00 0.00 0.00 0.00 0.00 0.00 0.00 0.00 0.00 0.00 0.00 0.01 0.01 0.01 0.01 0.01 0.01 0.01 0.01 0.01 0.03 0.03 0.01 0.01 0.01 0.02 0.04 0.10 0.09 0.13 0.21 0.20 0.21 0.31 0.32 0.33 0.33 0.31
0.00 0.00 0.00 0.00 0.00 0.00 0.00 0.00 0.00 0.00 0.00 0.00 0.00 0.00 0.00 0.00 0.00 0.01 0.01 0.02 0.03 0.04 0.05 0.07 0.08 0.07 0.09 0.20 0.14 0.09 0.07 0.17 0.16 0.18 0.20 0.16 0.20 0.31 0.25 0.21 0.27 0.31 0.33 0.32
0.01 0.01 0.01 0.00 0.00 0.00 0.00 0.00 0.00 0.00 0.00 0.00 0.00 0.00 0.00 0.01 0.01 0.03 0.06 0.09 0.10 0.11 0.14 0.12 0.10 0.14 0.13 0.26 0.34 0.31 0.34 0.36 0.39 0.34 0.28 0.30 0.27 0.31 0.38 0.30 0.25 0.22 0.24 0.29
0.07 0.03 0.00 0.00 0.00 0.00 0.00 0.00 0.00 0.00 0.00 0.00 0.00 0.00 0.01 0.02 0.05 0.12 0.13 0.14 0.21 0.24 0.23 0.17 0.14 0.34 0.34 0.41 0.52 0.49 0.49 0.63 0.59 0.43 0.40 0.38 0.39 0.37 0.44 0.42 0.35 0.22 0.16 0.14
0.00 0.00 0.00 0.00 0.00 0.00 0.00 0.00 0.00 0.00 0.00 0.00 0.00 0.01 0.02 0.04 0.08 0.07 0.09 0.15 0.24 0.32 0.33 0.30 0.36 0.40 0.45 0.58 0.73 0.72 0.73 0.68 0.58 0.46 0.46 0.42 0.42 0.44 0.43 0.47 0.40 0.28 0.22 0.17
0.00 0.00 0.00 0.00 0.00 0.00 0.00 0.00 0.00 0.00 0.00 0.00 0.01 0.01 0.03 0.05 0.07 0.07 0.10 0.10 0.12 0.17 0.26 0.35 0.37 0.47 0.57 0.72 0.58 0.52 0.57 0.48 0.42 0.40 0.43 0.49 0.47 0.47 0.45 0.50 0.47 0.37 0.35 0.33
0.00 0.00 0.00 0.00 0.00 0.00 0.00 0.00 0.00 0.00 0.00 0.00 0.00 0.01 0.01 0.04 0.06 0.07 0.06 0.04 0.03 0.04 0.10 0.20 0.27 0.27 0.33 0.39 0.36 0.33 0.36 0.35 0.31 0.33 0.36 0.38 0.37 0.39 0.42 0.53 0.54 0.46 0.39 0.38
0.00 0.00 0.00 0.00 0.00 0.00 0.00 0.00 0.00 0.00 0.00 0.00 0.01 0.01 0.01 0.01 0.04 0.04 0.03 0.03 0.03 0.06 0.04 0.04 0.07 0.15 0.18 0.25 0.25 0.22 0.26 0.31 0.33 0.35 0.33 0.31 0.28 0.30 0.36 0.46 0.47 0.50 0.46 0.37
0.00 0.00 0.00 0.00 0.00 0.00 0.00 0.00 0.00 0.00 0.00 0.00 0.01 0.01 0.01 0.00 0.01 0.02 0.03 0.02 0.01 0.01 0.00 0.00 0.00 0.03 0.06 0.14 0.15 0.15 0.19 0.27 0.28 0.31 0.31 0.34 0.31 0.29 0.33 0.38 0.40 0.40 0.40 0.39
0.00 0.00 0.00 0.00 0.00 0.00 0.00 0.00 0.00 0.00 0.00 0.00 0.00 0.01 0.01 0.01 0.01 0.02 0.04 0.06 0.01 0.00 0.00 0.00 0.01 0.02 0.03 0.03 0.02 0.03 0.05 0.10 0.16 0.19 0.20 0.23 0.27 0.29 0.33 0.34 0.35 0.36 0.35 0.35
0.00 0.00 0.00 0.00 0.00 0.00 0.00 0.00 0.00 0.00 0.00 0.00 0.00 0.01 0.01 0.02 0.04 0.07 0.06 0.01 0.01 0.01 0.01 0.01 0.01 0.01 0.03 0.03 0.02 0.03 0.03 0.03 0.04 0.11 0.18 0.21 0.22 0.24 0.27 0.29 0.31 0.32 0.34 0.33
0.01 0.00 0.00 0.00 0.00 0.00 0.01 0.00 0.00 0.00 0.00 0.01 0.02 0.03 0.05 0.09 0.09 0.06 0.04 0.01 0.01 0.02 0.01 0.02 0.02 0.02 0.03 0.05 0.04 0.03 0.03 0.04 0.04 0.04 0.09 0.16 0.19 0.19 0.18 0.19 0.21 0.25 0.29 0.32
0.00 0.00 0.00 0.00 0.01 0.01 0.01 0.01 0.01 0.01 0.03 0.08 0.13 0.18 0.17 0.08 0.07 0.04 0.01 0.01 0.01 0.02 0.02 0.02 0.02 0.04 0.07 0.07 0.05 0.04 0.04 0.06 0.06 0.03 0.03 0.04 0.08 0.14 0.18 0.18 0.19 0.19 0.16 0.16
0.00 0.00 0.00 0.00 0.00 0.00 0.01 0.02 0.03 0.04 0.05 0.12 0.13 0.07 0.03 0.01 0.01 0.00 0.01 0.01 0.01 0.02 0.06 0.05 0.07 0.09 0.09 0.07 0.05 0.04 0.04 0.06 0.06 0.04 0.03 0.03 0.03 0.03 0.07 0.13 0.16 0.11 0.08 0.07
0.00 0.00 0.00 0.01 0.02 0.02 0.03 0.04 0.07 0.10 0.15 0.12 0.02 0.00 0.00 0.01 0.01 0.01 0.02 0.02 0.03 0.05 0.08 0.07 0.09 0.11 0.10 0.08 0.06 0.05 0.03 0.04 0.06 0.05 0.03 0.03 0.03 0.03 0.03 0.03 0.06 0.07 0.05 0.04

GFSNGP_prec_precacc24_246.txt.gz
Total_Precipitation_Accumulation
0.02 0.04 0.11 0.22 0.13 0.19 0.43 0.51 0.73 1.06 0.90 1.12 1.19 1.05 0.83 0.62 0.53 0.46 0.33 0.29 0.50 0.68 0.70 0.76 0.62 0.52 0.61 0.36 0.38 0.31 0.17 0.16 0.18 0.22 0.27 0.25 0.33 0.33 0.33 0.43 0.55 0.65 0.84 1.11
0.01 0.02 0.03 0.02 0.04 0.08 0.24 0.42 0.63 0.38 0.94 1.09 0.81 0.55 0.45 0.33 0.15 0.07 0.03 0.02 0.02 0.08 0.23 0.43 0.57 0.55 0.62 0.58 0.34 0.41 0.31 0.22 0.21 0.18 0.21 0.27 0.22 0.36 0.37 0.37 0.46 0.60 0.63 0.66
0.01 0.00 0.03 0.17 0.38 0.22 0.25 0.32 0.35 0.57 1.12 0.67 0.44 0.38 0.33 0.14 0.04 0.00 0.00 0.00 0.00 0.00 0.02 0.10 0.30 0.36 0.39 0.55 0.40 0.30 0.40 0.32 0.22 0.24 0.25 0.25 0.33 0.25 0.37 0.51 0.40 0.50 0.67 0.56
0.01 0.02 0.12 0.43 0.22 0.25 0.23 0.21 0.30 0.30 0.29 0.19 0.09 0.04 0.01 0.01 0.01 0.00 0.00 0.00 0.00 0.00 0.00 0.00 0.04 0.13 0.19 0.21 0.31 0.26 0.24 0.29 0.25 0.21 0.22 0.24 0.25 0.32 0.32 0.36 0.51 0.49 0.46 0.51
0.05 0.06 0.09 0.18 0.15 0.26 0.23 0.21 0.15 0.08 0.07 0.04 0.01 0.00 0.00 0.00 0.00 0.00 0.00 0.00 0.00 0.00 0.00 0.00 0.00 0.01 0.05 0.10 0.13 0.18 0.16 0.14 0.14 0.17 0.17 0.18 0.19 0.22 0.20 0.27 0.26 0.29 0.39 0.41
0.02 0.05 0.15 0.22 0.05 0.05 0.21 0.41 0.11 0.02 0.01 0.00 0.00 0.00 0.00 0.00 0.00 0.00 0.00 0.00 0.00 0.00 0.00 0.00 0.00 0.00 0.00 0.01 0.03 0.07 0.11 0.10 0.07 0.07 0.08 0.09 0.09 0.10 0.11 0.11 0.14 0.17 0.14 0.18
0.01 0.05 0.06 0.03 0.03 0.02 0.33 0.38 0.05 0.02 0.01 0.00 0.00 0.00 0.00 0.00 0.00 0.00 0.00 0.00 0.00 0.00 0.00 0.00 0.00 0.00 0.00 0.00 0.00 0.00 0.01 0.03 0.05 0.04 0.04 0.03 0.03 0.03 0.03 0.04 0.05 0.04 0.06 0.07
0.09 0.15 0.14 0.02 0.02 0.11 0.27 0.12 0.01 0.00 0.00 0.00 0.00 0.00 0.00 0.00 0.00 0.00 0.00 0.00 0.00 0.00 0.00 0.00 0.00 0.00 0.00 0.00 0.00 0.00 0.00 0.00 0.00 0.01 0.02 0.02 0.02 0.02 0.01 0.01 0.02 0.02 0.02 0.02
0.11 0.15 0.11 0.03 0.04 0.01 0.01 0.02 0.00 0.00 0.00 0.00 0.00 0.00 0.00 0.00 0.00 0.00 0.00 0.00 0.00 0.00 0.00 0.00 0.00 0.00 0.00 0.00 0.00 0.00 0.00 0.00 0.00 0.00 0.00 0.00 0.01 0.01 0.01 0.01 0.01 0.01 0.01 0.00
0.27 0.18 0.06 0.12 0.07 0.01 0.00 0.00 0.00 0.00 0.00 0.00 0.00 0.00 0.00 0.00 0.00 0.00 0.00 0.00 0.00 0.00 0.00 0.00 0.00 0.00 0.00 0.00 0.00 0.00 0.00 0.00 0.00 0.00 0.00 0.00 0.00 0.00 0.01 0.01 0.01 0.01 0.01 0.00
0.04 0.10 0.10 0.07 0.02 0.01 0.00 0.00 0.00 0.00 0.00 0.00 0.00 0.00 0.00 0.00 0.00 0.00 0.00 0.00 0.00 0.00 0.00 0.00 0.00 0.00 0.00 0.00 0.00 0.00 0.00 0.00 0.00 0.00 0.00 0.00 0.00 0.00 0.00 0.01 0.01 0.01 0.01 0.01
0.00 0.01 0.01 0.00 0.00 0.00 0.00 0.00 0.00 0.00 0.00 0.00 0.00 0.00 0.00 0.00 0.00 0.00 0.00 0.00 0.00 0.00 0.00 0.00 0.00 0.00 0.00 0.00 0.00 0.00 0.00 0.00 0.00 0.00 0.00 0.00 0.00 0.00 0.01 0.01 0.01 0.01 0.01 0.01
0.00 0.00 0.00 0.00 0.00 0.00 0.00 0.00 0.00 0.00 0.00 0.00 0.00 0.00 0.00 0.00 0.00 0.00 0.00 0.00 0.00 0.00 0.00 0.01 0.00 0.00 0.00 0.00 0.00 0.00 0.01 0.01 0.01 0.02 0.00 0.01 0.01 0.01 0.01 0.02 0.02 0.02 0.02 0.04
0.00 0.00 0.00 0.00 0.00 0.00 0.00 0.00 0.00 0.00 0.00 0.00 0.00 0.00 0.00 0.00 0.00 0.00 0.00 0.01 0.01 0.01 0.01 0.01 0.00 0.00 0.01 0.01 0.03 0.04 0.05 0.11 0.06 0.03 0.03 0.03 0.03 0.03 0.04 0.03 0.02 0.01 0.03 0.06
0.01 0.01 0.01 0.00 0.00 0.00 0.00 0.00 0.00 0.00 0.00 0.00 0.00 0.00 0.00 0.00 0.00 0.01 0.01 0.01 0.01 0.01 0.02 0.01 0.01 0.02 0.04 0.05 0.12 0.16 0.17 0.17 0.13 0.11 0.08 0.08 0.05 0.06 0.06 0.06 0.08 0.08 0.06 0.10
0.06 0.03 0.00 0.00 0.00 0.00 0.00 0.00 0.00 0.00 0.00 0.00 0.00 0.00 0.00 0.00 0.00 0.01 0.03 0.04 0.07 0.05 0.03 0.03 0.04 0.10 0.14 0.15 0.17 0.15 0.14 0.25 0.23 0.16 0.14 0.12 0.11 0.12 0.13 0.14 0.17 0.14 0.11 0.10
0.00 0.00 0.00 0.00 0.00 0.00 0.00 0.00 0.00 0.00 0.00 0.00 0.00 0.00 0.00 0.00 0.00 0.00 0.01 0.01 0.04 0.06 0.08 0.09 0.11 0.12 0.15 0.21 0.22 0.16 0.19 0.17 0.22 0.18 0.19 0.18 0.19 0.22 0.26 0.33 0.31 0.25 0.21 0.16
0.00 0.00 0.00 0.00 0.00 0.00 0.00 0.00 0.00 0.00 0.00 0.00 0.00 0.00 0.00 0.00 0.00 0.00 0.01 0.00 0.00 0.02 0.07 0.07 0.08 0.10 0.13 0.19 0.16 0.17 0.23 0.20 0.19 0.21 0.24 0.32 0.35 0.38 0.40 0.47 0.47 0.38 0.35 0.34
0.00 0.00 0.00 0.00 0.00 0.00 0.00 0.00 0.00 0.00 0.00 0.00 0.00 0.00 0.00 0.00 0.01 0.01 0.00 0.01 0.01 0.01 0.01 0.05 0.09 0.09 0.12 0.18 0.18 0.18 0.23 0.24 0.22 0.25 0.30 0.34 0.34 0.38 0.41 0.54 0.56 0.48 0.40 0.40
0.00 0.00 0.00 0.00 0.00 0.00 0.00 0.00 0.00 0.00 0.00 0.00 0.00 0.01 0.01 0.00 0.00 0.00 0.00 0.02 0.03 0.03 0.01 0.01 0.03 0.10 0.13 0.17 0.18 0.18 0.23 0.27 0.31 0.34 0.33 0.31 0.29 0.31 0.38 0.47 0.48 0.53 0.47 0.40
0.00 0.00 0.00 0.00 0.00 0.00 0.00 0.00 0.00 0.00 0.00 0.00 0.01 0.01 0.01 0.00 0.00 0.01 0.02 0.01 0.00 0.00 0.00 0.00 0.00 0.03 0.05 0.13 0.14 0.16 0.20 0.28 0.29 0.33 0.34 0.36 0.32 0.31 0.35 0.41 0.43 0.44 0.44 0.43
0.00 0.00 0.00 0.00 0.00 0.00 0.00 0.00 0.00 0.00 0.00 0.00 0.00 0.01 0.01 0.00 0.00 0.00 0.02 0.06 0.01 0.00 0.00 0.00 0.02 0.03 0.03 0.03 0.03 0.04 0.05 0.10 0.17 0.22 0.21 0.25 0.31 0.33 0.36 0.38 0.40 0.41 0.39 0.38
0.00 0.00 0.00 0.00 0.00 0.00 0.00 0.00 0.00 0.00 0.00 0.00 0.00 0.01 0.01 0.01 0.03 0.06 0.03 0.01 0.00 0.01 0.01 0.01 0.02 0.01 0.03 0.05 0.04 0.04 0.04 0.06 0.07 0.13 0.20 0.23 0.27 0.29 0.32 0.34 0.36 0.37 0.38 0.37
0.00 0.00 0.00 0.00 0.00 0.00 0.01 0.00 0.00 0.00 0.00 0.01 0.02 0.03 0.05 0.08 0.07 0.05 0.03 0.01 0.01 0.02 0.01 0.02 0.02 0.02 0.03 0.06 0.06 0.05 0.05 0.07 0.07 0.06 0.11 0.17 0.22 0.24 0.23 0.25 0.26 0.29 0.33 0.36
0.00 0.00 0.00 0.00 0.00 0.01 0.01 0.00 0.00 0.00 0.02 0.08 0.13 0.18 0.16 0.05 0.05 0.04 0.01 0.01 0.02 0.02 0.02 0.03 0.03 0.04 0.08 0.08 0.06 0.05 0.06 0.09 0.08 0.05 0.04 0.07 0.10 0.16 0.22 0.24 0.26 0.25 0.20 0.21
0.00 0.00 0.00 0.00 0.00 0.00 0.00 0.00 0.01 0.01 0.04 0.12 0.13 0.06 0.01 0.00 0.00 0.00 0.01 0.01 0.01 0.03 0.05 0.04 0.07 0.09 0.09 0.07 0.05 0.04 0.04 0.07 0.07 0.05 0.04 0.04 0.05 0.06 0.09 0.16 0.20 0.16 0.13 0.12
0.00 0.00 0.00 0.00 0.01 0.01 0.01 0.00 0.01 0.05 0.11 0.09 0.02 0.00 0.00 0.00 0.00 0.00 0.02 0.02 0.03 0.04 0.07 0.05 0.06 0.09 0.10 0.07 0.05 0.04 0.03 0.04 0.07 0.07 0.05 0.05 0.05 0.06 0.05 0.05 0.09 0.12 0.10 0.08